GFSGBSN_prec_cthk_000.txt.gz
RH
33 30 23 19 18 18 19 20 22 21 23 27 30 26 20 21 25 28 25 23 20 22 22 23 26 32 34 32 28 25 26 26 23 21 24 25 34 35 36 35 32 30 30 31 32 36 34
33 31 27 21 20 20 20 21 23 23 24 30 27 21 20 25 30 31 27 23 19 18 20 23 29 37 36 36 28 27 29 28 24 27 30 35 36 36 37 35 32 28 24 25 26 25 22
35 30 27 24 23 22 21 22 22 24 26 30 24 20 24 28 30 30 27 23 21 20 22 26 37 40 34 32 29 32 28 29 26 25 36 35 37 35 34 32 30 29 24 19 16 17 19
40 32 28 26 24 23 22 23 23 26 29 29 23 22 26 28 28 28 25 22 21 22 25 33 42 46 32 30 33 31 29 31 29 30 35 36 36 35 34 30 28 26 21 17 16 15 13
44 32 27 25 25 25 23 23 24 26 31 29 22 24 28 27 29 26 22 21 23 25 30 42 47 32 31 26 28 28 32 33 33 37 37 36 34 31 29 29 27 25 24 20 17 15 16
43 35 28 24 25 25 24 24 25 29 29 27 23 26 25 27 26 23 21 26 27 31 36 42 39 35 34 27 25 28 32 34 34 34 33 34 32 29 29 27 27 21 24 28 26 23 27
46 39 28 24 24 25 25 25 26 29 28 25 26 26 23 25 23 24 29 33 34 33 29 32 35 37 33 28 22 25 31 32 35 33 34 34 33 33 29 27 24 22 31 36 31 29 35
46 44 28 27 25 25 24 26 29 29 26 25 26 22 23 21 26 32 37 41 34 33 33 30 33 30 25 21 19 26 28 33 34 35 33 28 32 31 31 31 28 30 33 37 35 35 35
51 47 28 27 26 25 25 27 28 29 25 26 25 21 24 26 35 43 36 34 34 33 34 30 29 27 26 22 16 20 23 32 33 32 28 21 30 30 31 31 40 40 33 35 39 39 39
54 50 28 27 28 27 26 28 29 27 25 26 23 22 30 40 45 40 33 33 32 32 32 29 27 28 25 21 19 19 20 30 32 33 30 28 32 33 33 40 41 42 40 38 45 45 50
58 54 28 27 30 28 28 30 30 26 26 27 21 27 37 39 40 40 34 30 27 29 40 24 25 25 26 23 20 23 24 22 25 25 23 26 29 31 35 32 30 36 37 40 43 43 45
65 60 28 29 31 30 31 30 29 27 27 27 23 33 38 42 39 40 31 28 30 43 36 24 26 28 29 25 23 27 28 27 27 30 28 29 31 32 31 30 27 27 35 41 45 47 51
71 66 30 32 32 33 32 30 29 28 28 27 30 38 35 41 38 34 31 32 41 52 25 24 22 24 25 25 26 31 31 32 32 35 37 32 32 29 29 29 27 30 34 46 48 52 51
79 70 35 36 35 36 34 32 29 30 29 29 36 38 33 41 35 32 34 35 41 39 25 20 20 21 25 22 21 23 28 31 31 33 39 37 35 27 28 27 28 29 35 46 46 54 44
88 66 42 39 38 39 34 33 31 32 31 31 37 37 35 35 34 33 33 42 44 34 25 20 20 22 25 24 23 23 26 28 27 25 32 35 30 26 30 31 31 30 35 36 48 52 54
97 68 49 43 42 40 36 34 33 33 33 32 38 37 31 32 32 34 35 43 44 33 26 21 22 23 29 28 28 26 27 28 28 31 33 36 37 29 33 34 31 30 31 32 40 40 47
96 63 54 47 46 41 40 34 35 35 36 35 41 36 31 29 31 31 39 39 41 32 26 24 26 30 30 32 33 34 34 33 30 31 37 42 41 32 30 30 32 29 27 29 31 39 42
93 60 51 51 49 44 40 36 35 37 38 36 38 34 32 28 31 34 36 39 39 31 29 29 27 28 36 41 40 38 39 36 32 32 38 46 44 46 31 31 28 26 25 25 31 27 45
86 60 52 53 51 43 40 40 34 37 36 35 32 34 34 29 32 34 34 39 39 30 30 29 28 30 40 49 51 44 42 38 35 31 36 40 43 49 36 30 26 24 27 28 29 35 38
73 64 55 54 48 44 43 42 36 37 35 38 32 39 38 33 26 25 31 36 37 32 29 28 30 29 42 50 49 51 50 42 38 36 32 35 38 34 36 29 28 27 27 27 27 38 36
72 61 54 52 47 44 47 41 40 36 33 35 31 36 33 38 31 25 29 36 36 34 29 28 29 29 38 51 50 52 49 41 39 36 35 33 35 34 34 32 27 23 23 29 28 28 32
70 59 55 50 47 47 49 42 42 35 33 35 30 33 32 30 25 26 31 31 36 34 31 26 29 29 32 42 43 47 43 41 35 36 34 35 38 34 36 36 33 27 24 25 27 27 31
68 59 55 54 53 52 51 43 42 35 33 34 30 29 31 29 29 29 30 31 37 34 32 29 27 26 29 35 42 41 40 39 35 34 32 33 40 32 30 38 32 27 23 25 25 25 27
68 59 58 57 56 60 52 44 42 35 31 33 31 32 36 34 31 27 26 29 39 33 33 32 29 28 32 36 40 44 42 42 41 41 35 34 37 38 42 36 33 21 24 25 25 26 27
64 62 59 59 63 60 52 46 41 33 32 33 33 38 41 39 29 23 29 36 38 38 37 35 32 32 33 36 43 47 52 45 46 46 41 36 35 43 41 43 30 23 29 31 31 27 29
64 61 62 66 63 57 53 47 39 31 32 32 41 43 45 38 32 20 32 39 42 41 40 40 39 36 35 39 42 48 50 44 45 47 47 41 37 37 47 37 34 26 27 29 29 36 29
63 63 63 69 67 58 54 45 37 31 32 40 50 50 46 42 30 25 35 39 35 38 44 42 42 40 38 43 50 48 45 43 46 50 52 54 50 43 53 44 35 25 29 30 40 32 31
65 63 69 70 64 60 54 42 35 31 38 48 49 51 55 45 43 42 41 41 44 40 44 45 46 46 45 48 52 53 54 49 46 42 46 47 49 52 53 52 37 28 34 37 34 32 33
64 69 70 70 64 63 52 43 36 34 38 63 62 55 53 53 55 53 50 47 43 41 40 45 44 43 43 49 50 51 51 50 47 46 44 48 43 47 46 44 37 37 38 39 40 41 41

GFSGBSN_prec_cthk_003.txt.gz
RH
48 38 33 29 27 22 20 19 19 20 22 22 22 24 26 23 19 20 26 28 23 20 18 19 22 33 34 31 27 24 23 31 27 23 21 21 20 24 32 36 35 34 31 30 38 40 37
54 46 38 32 30 23 22 21 20 21 23 23 23 26 26 21 21 25 28 29 25 20 15 17 23 35 36 34 29 27 29 33 24 23 25 33 33 34 37 34 33 30 26 30 32 39 29
54 52 43 36 32 26 23 22 22 23 23 23 25 27 26 21 24 27 28 28 26 20 19 21 28 38 35 31 30 28 32 29 28 29 34 38 35 36 36 32 28 27 24 23 24 21 19
50 52 47 38 32 27 25 23 23 24 24 24 26 29 24 23 26 27 27 27 24 21 20 22 33 41 38 29 30 31 31 31 32 36 36 37 38 39 40 36 34 31 27 23 17 17 19
39 53 50 40 31 28 25 24 24 25 25 25 28 28 23 25 28 28 27 24 21 20 22 28 38 44 38 29 29 39 31 29 33 37 35 37 37 37 35 32 31 30 22 21 17 19 18
37 43 50 46 33 28 24 24 23 26 25 26 29 25 24 27 25 26 25 20 20 24 26 37 45 37 29 31 30 29 29 34 37 36 38 34 32 32 31 29 31 27 27 23 21 21 25
38 37 49 49 40 28 24 23 24 27 26 27 29 24 26 26 23 23 22 22 29 31 34 39 37 34 33 34 27 26 25 35 36 33 34 37 30 32 30 28 26 24 22 30 30 33 36
31 36 45 47 45 29 23 24 25 28 27 28 26 24 25 23 20 22 27 36 35 35 34 35 34 32 33 31 24 25 28 35 36 33 34 32 31 32 33 31 30 27 31 42 42 35 32
29 36 38 48 46 31 25 24 27 27 28 29 24 24 24 20 22 32 41 40 41 35 34 33 36 34 30 28 22 23 29 33 38 34 34 35 33 33 33 35 37 33 40 42 42 38 36
21 36 35 49 45 33 26 26 29 29 29 28 23 24 22 24 36 42 40 38 37 37 35 33 32 31 29 23 18 21 24 33 39 38 33 30 26 36 38 38 37 33 40 38 45 45 45
18 33 38 49 47 36 25 28 30 31 30 26 23 23 25 33 46 41 41 37 34 36 46 28 30 30 30 24 23 22 23 30 36 37 35 34 30 29 39 38 35 38 43 42 39 39 40
20 29 42 47 51 36 26 29 32 34 31 25 25 23 31 44 43 38 37 35 30 38 40 25 26 27 28 25 24 27 26 25 35 37 36 33 27 30 31 34 38 37 33 39 41 40 42
22 29 44 49 56 37 28 31 34 35 31 25 26 27 35 45 39 40 34 30 34 44 29 26 26 29 30 26 26 29 28 28 29 36 35 30 30 32 31 35 33 31 32 39 42 44 39
32 29 41 55 59 36 31 35 37 36 31 28 28 33 42 43 40 37 30 30 35 36 29 26 26 29 32 29 30 32 31 32 30 29 34 33 33 28 30 29 28 30 32 40 45 47 38
37 31 44 60 62 36 35 38 40 37 32 30 31 41 44 42 37 33 30 42 38 39 26 24 23 26 28 25 24 30 31 31 30 31 33 35 32 28 27 29 28 28 30 32 42 45 45
44 35 50 59 65 38 39 43 43 40 33 32 33 46 41 44 35 32 36 40 39 35 28 22 22 22 26 26 25 24 26 28 27 26 26 30 31 29 29 31 34 31 31 37 41 47 46
48 39 79 86 58 43 44 48 45 39 36 37 39 50 41 40 34 32 41 36 39 33 28 21 21 23 25 27 30 27 28 28 28 28 30 32 36 39 31 33 33 32 31 32 31 36 32
49 58 95 99 53 49 50 51 48 41 40 41 44 52 39 36 35 35 36 37 38 33 27 26 24 29 30 32 34 34 33 32 33 30 30 36 44 46 34 30 30 30 27 25 28 26 35
52 86 97 84 57 57 53 54 49 43 40 40 49 50 41 32 35 35 33 36 36 33 30 28 29 27 33 43 46 42 37 36 34 31 31 37 47 49 38 31 29 27 27 26 26 31 33
74 92 94 75 63 60 57 53 50 46 43 45 50 52 46 35 29 28 32 35 37 36 32 31 32 31 36 47 52 54 46 43 38 38 31 35 43 40 38 31 28 28 28 28 25 30 29
86 95 80 73 71 62 58 52 51 50 47 49 47 44 38 43 33 27 30 34 40 38 33 30 31 32 31 50 53 54 52 49 46 43 39 34 37 39 38 35 30 24 27 27 22 23 27
98 94 81 78 72 63 58 55 51 52 51 52 45 40 36 35 31 28 29 35 39 38 35 30 31 33 32 44 49 56 50 47 39 42 40 36 38 38 40 37 33 28 25 24 27 26 24
96 91 84 79 68 63 60 51 50 49 49 53 44 36 29 38 35 31 31 30 39 39 37 32 27 33 33 32 37 42 41 39 39 38 37 35 40 35 33 36 32 30 24 23 24 24 25
92 88 82 74 66 60 54 53 48 47 47 46 42 36 33 38 36 30 28 28 37 39 38 34 29 29 32 32 32 37 42 42 41 38 34 35 33 34 38 35 33 20 23 23 24 24 25
93 83 78 68 61 55 53 51 49 48 45 44 40 33 32 43 33 30 29 30 39 46 40 37 34 32 34 35 38 42 47 45 48 45 40 35 35 37 39 34 27 21 24 28 30 26 26
84 78 70 60 56 52 54 52 49 47 44 44 42 36 34 36 36 27 30 29 37 44 41 39 38 35 36 38 38 43 46 40 40 46 47 43 39 38 42 35 34 23 23 29 29 32 25
76 72 64 62 60 59 56 53 50 46 44 44 51 37 43 45 37 30 28 30 34 38 39 40 42 40 36 38 45 43 40 40 39 43 50 51 49 43 47 43 34 27 30 32 35 31 30
77 72 68 67 65 64 59 52 48 45 42 42 41 46 48 50 43 34 26 29 37 39 42 41 45 45 43 45 46 45 47 45 43 40 46 43 46 48 48 47 41 31 36 41 38 38 38
73 68 70 72 69 64 56 51 46 42 41 40 51 54 56 54 44 35 32 39 42 37 35 44 45 45 44 46 45 47 53 52 48 45 41 42 40 43 41 40 34 36 37 37 38 39 41

GFSGBSN_prec_cthk_006.txt.gz
RH
47 53 53 49 37 31 28 26 23 22 20 20 20 21 22 21 24 22 19 22 27 25 22 17 17 22 32 33 28 24 26 26 27 27 26 24 23 21 26 29 31 38 41 40 38 41 44
41 46 51 55 48 37 31 29 26 23 21 21 22 22 23 22 25 20 20 24 27 25 23 15 15 26 35 33 28 26 29 36 31 27 28 26 22 28 35 38 37 35 29 35 44 42 39
34 39 44 52 53 44 34 31 27 24 23 24 24 24 24 24 25 19 23 25 25 25 21 17 19 30 34 33 29 29 30 32 34 36 35 30 34 33 37 37 36 29 25 32 40 40 30
29 34 35 39 52 48 36 31 28 25 25 25 25 25 24 25 22 21 24 25 26 25 21 20 24 32 37 34 28 31 35 36 35 37 40 39 37 37 38 33 28 27 25 26 29 26 19
21 30 31 34 43 50 40 30 27 26 26 27 26 26 25 26 21 23 23 24 25 23 21 22 28 36 40 36 30 30 38 39 37 35 39 38 40 39 37 32 31 32 29 26 20 19 18
10 22 28 33 31 48 46 32 26 26 27 28 27 27 26 25 22 24 22 23 22 21 22 26 34 43 34 33 30 38 33 39 40 38 44 40 43 42 39 35 33 31 21 21 20 21 20
10 19 24 26 29 40 47 35 26 26 27 28 29 28 26 22 24 23 22 21 25 26 25 30 39 40 31 30 31 33 30 37 39 38 38 37 37 35 35 33 32 28 26 26 23 23 30
11 14 20 23 32 28 46 38 28 25 27 29 30 28 25 21 24 21 20 23 28 31 32 35 42 34 29 32 29 31 29 37 36 37 39 37 37 34 33 29 27 26 24 37 36 32 34
12 14 17 20 31 29 44 41 29 26 27 31 30 28 24 21 22 19 29 36 40 39 41 39 36 33 31 31 27 28 34 40 36 30 39 37 35 34 34 30 32 29 35 39 40 36 34
12 12 12 21 29 31 41 42 30 26 29 33 30 28 22 22 22 30 37 38 39 40 39 36 34 33 31 31 26 23 32 40 40 33 36 36 35 34 34 35 35 36 35 39 40 41 38
13 12 14 15 28 32 38 43 30 28 30 34 30 26 22 23 32 36 41 42 42 37 44 34 34 34 31 24 21 22 31 35 41 39 34 36 26 29 34 36 36 39 33 37 34 39 41
16 16 21 16 25 29 37 44 32 29 32 34 31 25 23 29 37 43 45 43 41 43 41 30 29 30 29 27 23 22 26 31 37 41 37 35 34 32 28 36 38 37 30 36 41 39 40
20 16 20 19 28 34 34 43 34 30 35 34 31 24 26 37 45 45 43 41 36 40 31 27 26 29 30 27 29 28 25 28 36 41 42 38 37 36 30 32 34 34 37 38 36 40 36
33 26 22 23 29 37 40 43 34 32 37 35 32 26 32 39 49 45 42 33 33 26 30 26 25 28 32 26 28 32 30 29 31 35 39 37 38 33 31 33 33 37 36 36 37 41 32
42 33 31 31 26 37 48 47 35 35 40 37 32 30 36 42 47 50 38 39 27 29 30 26 27 32 33 30 28 33 32 31 31 28 31 29 31 29 29 30 30 30 30 31 35 39 37
49 45 42 35 26 43 52 49 36 38 42 40 30 35 39 46 49 46 39 33 27 35 29 26 25 28 31 29 26 32 33 33 32 32 31 31 33 30 29 28 28 27 27 30 32 41 39
56 54 49 46 29 48 59 51 39 43 47 44 34 45 47 48 52 43 36 29 32 36 29 25 24 23 25 26 24 23 26 27 25 24 24 26 27 31 30 28 31 32 30 30 33 36 30
66 59 59 49 40 52 66 53 42 49 52 47 42 48 50 54 53 36 33 30 35 36 29 24 22 22 21 23 23 25 24 25 24 25 26 27 34 40 38 30 30 32 30 26 25 26 29
75 66 64 56 59 48 80 54 48 54 50 45 45 53 57 58 48 39 33 33 38 36 29 28 22 27 29 31 33 33 32 32 32 30 30 27 33 41 38 35 30 28 27 23 23 26 26
75 68 68 58 59 67 93 55 56 57 52 50 50 59 62 54 40 32 32 34 35 36 31 29 29 30 29 34 40 44 40 35 35 33 32 29 32 39 43 35 32 30 25 23 20 25 21
74 76 70 66 75 87 84 61 67 64 56 49 56 57 54 51 38 32 31 33 34 38 35 32 31 30 29 40 46 50 48 41 42 41 36 33 32 38 41 36 31 26 24 23 22 21 22
77 72 62 71 77 96 80 73 78 71 60 51 62 60 55 41 34 31 32 33 35 40 36 32 32 30 32 36 44 49 46 47 46 47 39 35 38 35 39 36 33 29 24 22 22 22 20
73 65 59 91 82 93 78 82 77 70 55 53 63 56 49 46 36 31 28 34 35 42 39 34 31 32 35 34 42 48 50 47 44 40 41 39 38 35 33 36 36 38 26 22 20 21 22
69 60 88 97 99 78 84 79 71 62 57 55 66 53 49 47 38 33 28 31 40 41 41 36 30 30 36 35 32 31 36 40 39 39 37 39 35 36 38 36 51 21 22 21 22 22 22
73 85 97 95 89 88 83 74 66 62 60 59 56 50 46 48 38 33 31 30 37 44 44 40 35 32 34 34 35 36 40 45 47 42 39 35 34 40 48 33 24 18 20 21 24 20 23
92 97 94 96 96 85 78 68 62 60 60 60 52 47 43 40 34 32 30 32 36 40 45 42 40 36 36 37 39 43 41 35 39 43 45 41 37 38 43 52 55 25 23 28 28 27 24
98 97 95 90 81 78 71 64 57 56 58 58 55 49 44 40 34 34 30 32 33 40 45 42 39 39 37 40 49 44 39 36 36 40 48 46 47 50 44 50 33 27 28 30 33 31 30
95 90 83 77 75 71 63 58 53 52 53 55 50 50 50 43 40 39 33 30 29 38 42 41 42 40 40 45 47 40 45 37 36 35 39 40 44 50 45 53 50 28 33 37 36 34 34
86 80 78 73 67 61 58 54 52 52 53 52 49 51 41 42 52 43 34 30 28 32 40 40 38 36 39 43 44 44 49 47 42 42 38 40 37 38 36 35 32 33 34 35 36 36 37

GFSGBSN_prec_cthk_009.txt.gz
RH
36 42 43 47 52 52 46 35 29 28 26 24 22 22 22 20 21 20 21 20 17 23 25 21 18 14 21 37 34 24 23 24 25 25 28 27 31 32 29 26 27 33 35 39 42 39 43
31 34 36 41 46 53 52 44 33 29 28 26 24 23 23 22 22 21 22 18 20 23 24 21 17 15 26 41 31 26 25 30 29 29 30 29 34 32 32 35 38 40 39 41 43 41 44
18 29 34 39 40 46 53 51 39 32 29 28 25 25 25 24 23 22 22 18 22 23 23 21 16 18 33 38 31 30 31 34 40 34 34 28 29 30 41 42 42 35 33 39 45 46 45
15 17 28 34 32 36 43 51 44 35 31 28 26 25 25 25 23 22 21 19 22 22 24 20 17 24 34 35 35 33 34 38 42 40 35 30 33 36 39 39 35 31 33 43 42 41 33
12 13 17 29 29 35 36 46 47 35 31 29 27 26 26 26 24 22 19 21 23 22 22 19 20 31 36 33 36 34 36 41 43 39 38 39 39 40 42 38 32 30 32 36 38 30 18
11 12 13 17 30 30 34 37 46 37 32 29 27 27 27 26 23 22 20 23 22 20 20 21 25 36 32 36 40 33 35 43 41 40 43 42 43 42 39 35 36 35 30 30 26 22 20
10 10 11 10 19 29 32 35 43 39 31 29 28 29 29 27 23 22 21 22 23 24 21 25 34 38 40 32 31 34 38 44 41 43 44 44 44 43 42 40 40 33 24 23 25 22 26
12 11 13 11 14 23 28 30 41 41 32 30 29 30 30 27 23 21 22 25 37 40 32 23 33 37 36 27 29 39 34 44 41 44 46 43 48 44 43 38 33 29 30 31 30 19 35
19 15 15 12 12 19 24 30 33 42 33 30 30 32 32 27 23 20 19 22 35 36 40 36 39 38 34 27 29 39 31 42 44 45 44 44 44 38 36 34 32 30 27 41 36 29 30
17 17 16 16 9 16 17 27 32 42 35 30 31 34 33 26 23 22 25 29 36 38 45 41 39 37 29 29 33 33 32 43 43 40 44 46 39 35 36 37 37 36 37 42 39 41 35
15 15 15 16 11 13 14 21 33 42 35 30 32 36 33 27 27 28 40 41 44 43 55 47 39 34 33 31 42 26 30 41 44 40 40 42 35 35 36 43 29 55 37 31 38 40 39
16 18 15 13 12 13 15 20 31 44 37 29 33 39 34 27 24 31 38 46 51 48 53 40 32 29 33 30 28 35 27 37 44 41 35 51 33 31 38 31 33 30 34 31 31 38 41
23 23 24 17 13 12 16 19 31 44 39 29 35 40 34 25 37 35 42 52 55 48 39 33 28 30 33 28 29 28 26 36 38 45 44 38 38 34 32 33 26 35 41 39 36 42 39
35 29 24 24 15 17 16 20 30 44 41 32 36 41 33 29 41 43 51 57 54 34 40 29 25 28 37 34 33 29 29 30 36 43 44 40 42 32 31 35 41 32 38 40 42 41 31
40 38 33 22 21 16 19 24 33 49 43 34 41 43 34 33 38 47 56 60 42 31 37 25 26 31 36 33 35 32 35 38 34 33 45 40 44 44 33 32 28 40 34 37 43 42 35
48 48 40 33 24 19 21 27 35 51 45 35 45 43 31 38 42 55 53 45 40 36 32 25 24 28 37 32 28 36 36 46 36 28 33 42 43 39 31 28 26 28 38 33 29 37 40
51 50 50 43 34 30 23 30 36 54 44 41 54 48 36 42 46 59 51 40 42 31 28 25 27 30 42 38 31 35 45 42 32 30 28 33 34 43 32 27 32 32 25 26 35 45 45
58 60 57 50 45 40 29 36 40 61 43 49 56 47 51 47 55 54 51 38 38 34 30 26 31 29 31 36 29 33 35 39 30 28 23 25 35 45 35 33 26 33 38 38 33 35 31
60 71 67 62 51 46 42 43 61 63 40 50 58 54 67 55 56 61 48 40 39 38 32 26 24 28 26 29 31 30 32 34 29 24 27 28 27 40 38 32 29 25 27 28 28 30 25
68 70 76 71 61 54 52 51 74 66 47 60 58 60 67 63 53 58 47 43 36 39 36 29 25 29 28 34 34 41 38 32 30 31 28 28 27 34 42 49 42 35 27 26 24 27 24
88 95 84 71 70 58 58 62 79 70 54 72 62 51 53 59 54 62 49 38 35 36 36 30 31 26 31 34 38 39 45 39 34 35 32 33 32 33 36 39 39 32 30 27 23 21 25
89 90 85 70 71 70 60 73 86 73 72 76 61 56 57 64 52 61 49 36 36 38 35 32 32 30 34 39 37 47 50 50 42 42 42 38 39 35 34 33 37 34 28 23 23 21 21
86 87 86 74 73 74 66 77 91 79 68 69 69 62 60 67 62 54 44 39 39 41 43 39 31 39 35 41 42 48 52 51 50 51 50 47 42 40 36 36 35 40 29 25 23 23 22
79 84 85 70 64 78 75 86 94 71 68 68 77 73 66 74 63 49 43 39 39 41 44 37 35 36 37 32 35 40 46 49 48 48 46 45 42 42 39 41 53 23 23 23 24 23 24
79 82 79 69 66 72 88 88 88 72 78 76 82 70 78 75 64 48 38 35 40 43 58 42 35 32 30 35 37 35 36 39 42 41 40 39 40 43 52 35 27 23 20 21 21 21 25
75 78 73 56 72 84 97 91 83 80 82 78 86 64 67 68 54 41 40 34 49 49 52 48 40 35 31 37 37 36 40 35 43 44 43 40 41 39 39 52 57 32 27 26 26 27 29
75 67 56 71 88 95 98 94 90 83 82 82 82 64 61 58 55 44 38 36 37 45 50 48 44 39 35 39 47 40 40 35 38 38 48 45 48 49 45 51 37 29 28 26 29 35 33
65 64 77 89 95 97 95 93 85 82 76 83 82 60 58 57 55 43 38 38 36 42 54 49 45 43 40 42 47 42 45 39 37 35 37 38 43 50 47 56 50 27 28 32 38 33 34
84 93 92 91 89 92 92 83 84 78 74 77 78 55 53 52 57 40 40 36 38 41 47 47 39 38 35 38 45 48 48 46 39 43 36 41 37 42 35 39 37 30 30 34 34 33 35

GFSGBSN_prec_cthk_015.txt.gz
RH
21 22 26 33 35 36 38 45 48 53 53 45 35 29 28 27 26 25 24 22 20 17 16 15 16 15 14 19 22 30 23 19 19 24 29 36 38 37 37 39 37 38 39 42 41 46 54
22 22 20 20 28 33 37 37 39 46 52 51 40 33 30 29 27 26 25 23 21 17 16 16 17 15 15 25 27 30 28 30 26 23 26 35 38 43 42 39 38 35 42 40 40 43 49
31 34 20 20 19 22 29 33 36 38 45 50 46 37 32 30 29 27 26 24 21 17 16 17 16 15 15 21 27 27 34 34 35 39 28 35 40 39 42 45 41 41 40 38 45 48 49
27 25 34 21 19 19 22 26 30 35 40 49 51 40 34 32 30 28 27 24 20 16 16 17 16 15 15 20 24 29 32 37 41 42 37 32 33 39 37 37 38 40 40 38 42 43 46
28 39 34 33 22 17 18 20 28 31 33 38 49 44 37 33 31 29 27 24 19 15 16 17 17 23 20 22 23 29 31 39 38 40 37 31 32 36 39 43 43 38 38 41 46 42 41
18 23 29 24 25 19 17 17 20 27 29 31 42 46 37 34 31 30 28 23 18 15 15 16 16 24 19 22 24 28 33 37 40 40 36 32 35 40 44 45 45 40 40 45 43 33 32
18 15 15 16 19 19 24 17 15 22 28 30 36 47 39 34 31 31 30 24 31 34 29 15 20 24 25 27 29 29 31 39 38 42 44 43 44 46 41 43 41 40 40 39 35 25 26
25 26 18 15 14 14 18 34 23 26 32 31 37 50 40 34 32 32 31 26 35 33 31 23 20 24 26 29 32 26 33 39 36 45 44 44 45 41 43 45 41 46 45 44 37 32 20
22 26 27 23 20 15 14 14 24 30 28 40 45 47 43 30 32 34 32 25 32 30 31 21 17 23 27 28 29 24 32 38 41 46 50 47 44 48 48 44 43 45 45 38 33 29 24
21 19 20 21 18 18 13 13 17 13 18 24 36 40 43 30 32 39 35 30 25 25 37 23 27 18 26 28 29 23 31 35 44 47 46 48 47 48 48 43 43 44 42 42 39 42 25
26 22 19 18 15 17 19 16 14 14 20 23 31 32 38 27 33 41 46 40 38 39 54 25 27 26 24 27 23 26 33 39 41 48 44 47 48 47 48 44 42 41 38 41 40 41 47
29 25 21 17 18 18 19 20 21 12 24 23 26 30 42 26 29 40 52 47 42 48 56 37 32 31 32 27 26 31 32 38 42 46 41 42 44 45 43 41 38 31 34 32 42 44 61
39 34 27 25 18 17 17 17 17 18 22 34 37 31 39 32 32 41 43 49 61 63 32 36 32 35 34 29 25 34 36 36 38 44 44 38 40 51 47 41 31 30 30 43 47 58 57
40 34 37 28 26 25 19 17 18 14 20 23 36 40 44 33 43 43 43 58 64 35 34 36 36 39 31 28 30 32 38 39 28 31 43 48 51 46 44 33 43 43 34 55 60 75 54
36 47 45 37 30 26 26 24 17 17 13 19 35 36 40 37 42 50 51 63 48 34 26 33 37 40 29 32 38 34 34 32 25 24 38 44 53 51 49 43 42 41 43 42 61 65 71
48 47 49 44 35 26 26 26 23 17 15 24 36 41 32 40 42 57 57 54 42 30 37 42 44 35 31 41 46 46 37 30 27 26 31 45 53 54 56 49 39 34 30 44 54 64 48
48 50 50 48 40 35 33 35 25 23 18 27 40 40 30 48 42 57 53 51 38 37 44 49 44 39 29 40 43 42 33 35 34 40 43 48 49 53 56 56 41 34 31 25 34 43 50
52 53 49 49 45 36 38 38 37 28 23 31 41 46 32 51 50 53 48 46 35 39 47 49 46 42 30 41 47 37 33 49 45 42 51 49 52 54 54 40 33 30 32 42 55 36 48
53 53 51 49 45 42 46 48 43 35 25 34 50 52 46 53 42 48 38 37 38 47 50 47 43 35 29 45 59 40 36 52 53 52 46 38 39 48 48 45 39 38 29 37 43 45 46
53 56 50 49 45 47 52 51 50 45 31 39 54 57 64 53 33 38 37 32 40 45 54 49 41 34 35 52 54 52 41 43 42 48 42 34 31 33 39 28 37 45 48 33 32 49 46
56 56 50 48 53 62 62 58 55 49 37 50 60 49 54 53 48 44 38 33 37 52 52 48 42 34 37 43 50 53 50 45 42 39 36 33 30 26 26 28 39 43 47 49 36 35 40
58 51 44 50 68 68 61 63 58 54 41 63 63 45 50 48 48 47 39 37 35 48 52 44 45 33 38 36 39 43 45 41 36 37 33 27 31 26 27 27 36 39 49 45 43 38 36
63 57 57 63 68 69 62 65 63 62 59 63 64 51 48 53 55 50 36 37 33 50 47 39 40 37 37 38 36 38 40 43 44 45 42 35 38 39 40 36 33 37 28 31 34 40 38
68 64 60 62 63 63 58 68 66 67 61 64 61 58 61 58 59 39 40 40 35 48 55 42 40 44 49 41 40 43 48 52 54 68 60 50 52 56 59 50 44 27 24 26 28 31 30
70 61 60 61 61 60 64 74 67 67 64 65 68 67 77 66 57 51 41 40 42 59 56 51 49 46 52 45 54 60 61 52 56 62 68 68 64 68 62 57 41 30 28 28 27 31 29
63 58 61 68 70 68 76 77 68 57 70 73 78 59 82 83 61 45 44 46 56 62 63 53 59 58 55 61 51 47 52 40 46 46 49 51 52 54 57 57 50 36 31 29 28 38 32
71 72 72 75 86 79 86 83 64 56 71 79 84 74 73 78 76 62 48 47 62 68 64 64 82 62 53 70 61 45 42 33 47 47 47 49 52 56 61 58 47 37 33 31 37 40 34
82 90 94 96 98 91 87 77 54 63 76 79 78 75 71 81 80 70 58 59 64 58 61 58 92 68 56 54 48 46 48 44 47 44 43 41 50 54 59 61 54 31 30 31 36 34 33
82 88 94 98 95 97 84 63 49 77 85 85 74 66 69 90 90 77 57 58 63 56 55 54 72 53 38 42 42 44 48 50 46 50 38 42 38 42 41 44 32 28 30 31 31 32 31

GFSGBSN_prec_cthk_018.txt.gz
RH
22 21 20 21 26 30 32 32 35 40 44 48 49 45 36 32 31 29 27 26 25 22 18 15 13 14 11 15 20 22 22 24 22 23 30 35 37 40 43 42 38 39 37 41 38 41 51
23 23 21 20 20 21 26 30 32 31 40 42 49 50 41 34 32 31 29 28 26 23 18 15 13 14 12 21 23 22 26 27 26 27 28 37 38 38 42 43 40 41 39 39 38 39 55
24 25 26 25 23 20 18 20 27 30 33 34 40 47 44 36 33 32 30 30 27 22 18 15 13 14 12 18 24 23 28 30 30 33 29 36 37 39 36 39 44 43 42 38 45 53 57
29 25 25 28 27 37 34 20 20 24 26 31 33 43 47 39 35 34 33 31 27 22 17 15 14 14 11 17 21 22 28 32 36 38 35 34 35 39 35 37 41 41 40 45 50 55 48
27 27 28 25 27 31 31 43 25 22 22 28 33 35 43 43 37 35 34 32 27 21 17 15 14 16 13 17 21 23 28 35 36 37 38 33 32 37 37 40 40 38 38 38 46 48 50
23 25 33 35 30 27 31 38 51 24 18 21 29 30 38 43 36 35 38 32 27 23 19 15 15 16 14 21 22 24 30 34 38 38 35 33 33 38 45 44 44 39 43 46 49 45 43
32 28 20 23 27 27 25 30 31 46 26 20 32 27 34 45 37 35 37 32 29 37 33 16 14 12 19 22 24 25 29 32 38 39 40 38 40 42 43 43 44 44 43 45 42 36 36
26 32 29 27 21 19 22 22 23 24 37 26 25 27 31 40 37 39 41 33 34 34 31 21 22 20 20 25 27 27 28 32 36 43 46 41 41 40 40 43 43 43 42 41 36 32 30
22 22 27 30 28 27 16 14 20 16 20 33 38 34 30 40 41 39 46 39 32 37 33 18 18 16 21 24 27 26 27 32 36 39 51 48 39 41 45 49 48 45 46 43 35 33 34
28 24 22 24 27 28 29 25 15 16 15 17 32 42 48 49 59 45 44 43 29 33 38 23 19 16 22 27 27 25 26 31 37 40 46 47 44 44 49 50 47 45 40 44 39 36 36
40 31 28 26 23 22 23 25 26 19 23 20 26 38 43 58 48 45 51 45 39 44 48 21 23 18 21 24 26 22 26 30 34 40 42 49 50 45 50 47 40 42 41 42 42 42 46
39 40 37 28 27 22 19 20 24 26 19 16 22 27 29 36 38 45 53 50 48 52 51 30 28 26 24 26 26 25 29 29 34 36 42 47 48 45 46 45 41 39 40 44 44 45 59
36 36 37 40 29 27 22 19 18 20 22 20 20 28 36 31 38 35 47 55 58 61 27 32 31 29 26 27 27 28 30 30 35 39 42 45 46 43 44 43 39 34 36 51 47 62 59
29 39 40 38 40 30 25 22 22 18 20 20 25 25 32 36 46 37 41 62 65 41 30 33 33 33 31 30 27 28 30 32 33 40 47 50 48 44 44 43 42 42 42 46 47 64 54
37 48 51 46 41 39 30 27 25 25 22 19 25 34 35 36 55 46 46 66 52 39 28 32 36 39 35 31 25 30 31 30 31 35 39 52 48 47 44 44 42 45 43 41 55 64 60
54 45 51 50 48 44 38 30 27 26 27 25 29 34 40 33 66 56 54 51 54 29 37 34 38 36 37 30 31 37 35 28 29 31 32 43 52 52 48 44 41 37 42 43 57 62 59
78 56 48 49 49 46 43 38 27 31 27 27 34 40 40 32 63 61 65 52 45 27 39 43 39 38 36 32 32 39 38 35 31 27 28 34 42 46 45 43 46 48 41 40 40 57 58
89 75 51 45 44 42 50 43 32 37 32 32 39 43 38 29 67 52 54 55 41 33 45 50 50 47 37 30 38 45 39 36 38 38 37 39 49 59 44 45 41 44 36 40 48 41 56
90 85 60 49 48 44 55 46 38 37 37 36 41 50 54 33 52 52 49 48 44 37 49 52 51 45 37 33 37 41 44 39 44 40 40 44 54 63 53 45 46 38 43 42 41 52 49
90 89 74 52 54 55 55 48 40 43 42 42 51 62 64 53 32 38 48 47 39 34 47 52 56 48 43 37 36 47 46 41 44 46 49 51 51 44 43 38 42 47 48 46 44 51 50
97 91 75 59 55 58 54 53 38 49 51 51 59 55 52 47 41 45 44 44 34 39 43 47 54 49 48 39 38 43 51 46 46 42 53 52 49 42 34 30 31 33 35 35 48 43 42
98 92 80 65 60 58 52 47 44 54 55 59 59 55 52 41 34 42 44 41 30 31 37 50 52 46 42 39 38 43 52 50 44 45 49 53 51 47 42 34 29 30 35 33 41 47 45
99 93 80 66 57 55 51 44 49 63 68 61 63 55 54 38 44 42 39 35 24 31 39 52 50 48 43 38 42 45 49 55 52 44 41 41 46 45 38 33 29 37 25 29 34 47 44
99 94 80 65 54 51 46 44 56 69 69 58 63 61 59 50 54 36 37 33 23 33 39 52 53 53 45 42 45 45 53 55 53 49 41 47 48 49 48 39 48 32 24 23 25 26 29
97 90 74 61 53 46 48 56 66 74 70 63 65 66 68 58 49 47 49 34 26 33 45 51 51 50 44 41 49 52 60 52 50 49 50 56 71 69 61 58 47 36 30 26 28 36 35
85 72 62 55 48 58 65 66 65 73 70 58 65 64 73 66 44 52 50 37 32 39 55 57 56 57 58 56 52 53 53 49 52 49 49 52 68 77 78 67 59 40 33 32 32 43 36
75 75 71 59 57 61 61 58 58 67 70 53 76 77 73 67 64 44 45 37 33 43 54 57 57 63 60 61 64 59 56 51 57 47 44 51 58 61 70 64 48 35 36 33 34 34 37
83 79 72 68 63 59 59 55 62 66 66 56 74 83 85 86 76 69 45 38 42 40 53 56 64 66 68 66 65 60 55 53 46 38 37 41 52 60 62 62 50 36 36 37 36 36 34
69 66 62 59 59 58 55 56 65 65 66 61 76 65 86 91 91 87 59 42 40 38 54 65 57 62 62 61 61 62 62 49 42 51 42 38 36 42 42 41 33 28 29 29 29 29 30

GFSGBSN_prec_cthk_021.txt.gz
RH
28 26 23 23 24 29 32 33 35 35 33 39 40 42 43 41 33 31 30 30 28 27 26 21 17 14 12 12 17 19 18 21 21 21 30 34 34 34 41 36 37 41 39 39 41 43 52
25 26 28 24 21 22 23 26 29 32 33 31 33 36 41 45 39 34 32 30 29 29 27 21 16 14 13 13 21 19 21 24 24 25 28 34 37 38 42 38 41 39 46 40 40 41 57
26 25 27 27 26 22 22 21 21 25 31 31 29 31 33 42 44 36 32 31 30 30 29 21 16 14 13 11 21 21 25 29 27 28 27 34 36 42 39 41 40 39 44 43 43 45 57
27 26 25 27 26 24 25 22 23 21 24 29 27 29 29 39 44 39 34 32 32 32 29 21 16 14 12 11 19 21 26 31 33 34 35 36 34 39 41 42 39 42 40 44 46 51 55
30 25 26 25 25 30 25 26 33 30 35 29 29 28 28 34 42 42 35 34 33 33 29 21 16 15 11 12 16 21 26 32 37 38 37 36 33 40 41 39 41 41 39 41 47 47 52
38 36 31 26 24 25 27 30 28 31 34 48 50 30 31 36 38 41 33 35 34 32 32 26 17 15 11 15 18 21 27 31 40 36 36 34 32 39 45 44 45 39 39 40 42 47 48
23 29 35 35 33 24 26 29 30 34 36 41 48 39 37 33 31 41 34 35 36 40 38 28 16 13 13 18 19 22 27 30 39 37 40 36 37 42 48 44 43 41 40 45 46 46 45
29 27 24 29 33 32 30 23 26 29 30 34 47 48 38 33 32 39 34 36 40 42 37 26 22 20 17 21 22 22 27 31 35 40 43 39 40 42 44 43 47 47 44 46 46 46 40
27 27 29 29 28 30 31 31 28 23 23 24 33 46 48 41 45 41 37 40 48 42 38 25 20 17 18 20 22 23 26 30 33 36 45 43 36 42 42 42 48 48 46 42 40 34 32
25 27 29 28 28 29 27 27 25 22 19 19 17 30 42 47 45 44 47 46 47 48 45 27 24 17 18 21 22 25 27 30 34 36 44 43 39 40 44 44 46 46 46 42 40 38 42
26 25 28 28 28 29 29 28 25 24 20 16 14 23 31 42 56 58 61 59 51 54 44 23 23 19 17 20 23 24 27 30 34 37 41 46 44 46 44 42 45 46 44 41 37 44 46
34 27 29 29 29 28 28 29 29 28 26 26 17 18 29 35 44 62 70 72 64 56 47 28 25 20 18 22 23 23 25 26 33 35 39 46 43 45 42 47 43 45 44 45 46 46 55
50 38 27 35 35 39 28 28 28 30 27 26 24 21 32 38 38 61 70 64 73 70 29 31 30 24 21 25 26 25 25 29 31 34 41 46 46 47 47 48 44 40 44 51 51 60 58
66 56 42 27 35 40 40 29 28 26 26 24 24 27 33 29 33 40 53 76 77 52 33 34 32 31 28 26 27 27 30 30 30 34 44 47 50 47 46 46 43 41 44 49 49 59 49
78 73 59 41 27 42 43 40 29 28 27 29 27 26 40 27 35 54 57 75 64 47 33 28 35 38 34 29 27 28 29 31 30 30 39 50 50 48 48 48 42 43 42 43 53 58 57
90 80 74 60 37 35 49 47 40 31 29 28 30 29 35 29 32 54 57 57 57 34 39 37 41 37 36 34 32 30 30 27 30 32 34 44 48 47 49 48 47 45 44 45 52 54 57
97 93 85 76 51 34 51 51 49 38 35 32 35 32 30 29 46 55 55 57 52 33 38 45 47 41 38 36 31 30 28 32 33 33 36 39 42 48 51 48 44 47 49 47 43 52 54
93 98 96 82 64 47 62 59 51 46 40 40 40 39 36 22 53 52 49 54 44 34 41 47 51 48 41 36 34 31 35 37 34 38 38 34 37 52 44 43 43 43 52 53 59 40 52
91 94 98 92 80 69 63 60 58 49 47 42 41 44 43 30 46 49 49 49 55 38 37 46 51 52 43 38 39 35 38 40 38 39 39 33 36 45 38 37 43 40 43 54 51 45 45
91 93 98 98 89 80 69 68 60 53 49 50 49 52 56 50 32 40 54 50 55 51 38 44 48 55 51 41 37 39 42 44 40 42 41 38 41 42 43 45 52 50 47 47 44 54 46
99 95 98 99 93 85 79 66 60 55 49 58 54 45 47 48 40 41 44 47 50 50 41 39 46 56 56 49 44 42 42 45 47 41 46 46 43 45 50 46 41 37 40 42 44 44 47
98 95 97 98 93 91 81 68 55 55 57 64 61 49 47 39 38 40 42 47 45 44 40 41 48 51 50 55 48 47 41 43 47 45 44 43 54 55 59 52 45 41 37 46 40 35 35
97 95 98 99 94 91 81 69 53 63 66 64 59 54 49 38 43 45 33 37 36 41 32 31 41 51 51 52 51 49 46 36 49 49 48 49 55 60 55 53 46 46 35 28 27 30 34
98 96 99 98 94 91 84 71 67 67 53 61 57 55 58 46 46 38 35 37 32 33 32 25 42 52 50 53 55 56 49 46 55 60 51 52 53 57 59 49 53 27 26 25 25 23 24
99 99 99 96 94 90 85 72 62 59 50 62 60 63 65 63 39 43 40 39 34 30 32 28 42 46 59 63 64 67 64 56 65 62 59 53 57 57 55 59 50 35 31 32 31 29 26
99 98 98 98 94 88 75 64 59 52 51 66 64 63 69 71 49 43 41 39 35 31 30 29 44 60 60 67 70 70 69 60 63 59 60 56 54 54 64 67 70 53 48 45 39 43 34
98 99 98 97 94 85 69 60 51 51 57 69 67 68 69 70 58 54 49 41 38 30 26 32 52 66 63 75 73 74 64 55 62 59 56 58 59 60 65 65 59 44 43 40 43 37 36
98 98 97 97 85 71 58 52 46 54 62 76 66 65 66 66 64 62 60 48 36 40 28 35 62 68 72 72 77 79 66 57 55 48 46 54 62 58 57 60 52 37 38 36 34 37 36
96 94 88 77 71 63 58 49 50 64 74 76 72 70 60 72 69 58 64 48 36 33 28 41 52 59 60 68 74 79 69 60 52 56 46 47 35 37 40 40 34 31 30 33 35 36 36

GFSGBSN_prec_cthk_024.txt.gz
RH
25 26 26 25 26 27 28 33 36 34 37 39 39 40 42 42 45 45 36 31 29 30 30 28 26 23 17 12 15 18 16 16 18 17 26 32 36 37 36 36 40 44 41 42 45 46 56
32 26 24 25 23 26 25 26 28 31 34 36 38 36 34 39 39 44 42 34 32 32 31 29 27 23 17 13 19 18 18 19 21 22 25 33 39 40 39 42 38 40 44 40 42 51 59
31 29 28 25 22 23 23 24 24 26 26 29 34 37 36 36 35 40 44 38 34 32 32 31 28 23 18 13 18 19 21 22 22 25 26 33 37 42 40 41 42 39 45 44 46 49 57
35 33 33 31 25 22 21 21 24 24 25 24 26 32 33 35 38 40 45 41 35 34 33 32 29 23 19 11 15 20 23 25 27 28 29 35 35 39 42 41 43 38 43 48 48 52 57
24 28 32 30 34 31 25 23 23 24 24 24 24 29 32 35 39 38 44 46 36 35 34 32 30 25 18 12 14 19 22 25 29 33 34 37 33 37 42 43 44 41 45 47 50 50 54
17 20 23 27 31 32 35 32 26 24 26 26 29 35 42 40 40 39 42 45 35 36 35 34 32 30 16 14 16 18 22 26 30 33 35 36 32 37 40 46 46 45 43 43 46 46 51
18 19 19 20 23 29 32 34 36 28 27 26 29 33 43 46 59 49 40 49 40 39 39 35 30 24 17 15 17 19 22 26 32 32 36 35 34 40 39 46 45 45 42 42 44 46 49
19 19 25 21 22 20 26 32 35 32 29 27 30 33 46 44 52 53 46 47 42 43 40 32 32 32 21 20 21 20 22 25 30 35 40 41 43 43 42 47 49 46 44 45 46 44 44
29 21 22 27 24 24 19 24 29 32 35 30 27 31 39 52 50 51 43 41 41 46 43 32 31 29 20 20 20 20 22 25 29 32 40 43 41 44 41 47 48 48 47 48 45 40 39
35 33 24 24 26 27 23 18 23 28 27 29 27 24 29 50 58 47 44 52 49 49 45 37 37 29 24 20 20 21 23 25 28 31 38 42 39 38 40 38 44 49 49 46 43 38 44
41 39 37 28 23 26 28 27 18 22 27 25 21 22 28 42 56 47 47 57 51 51 56 37 44 35 26 19 18 21 25 26 29 32 34 42 42 43 43 40 40 47 47 45 40 43 43
50 49 48 41 31 23 30 29 29 21 22 25 23 20 23 33 41 45 65 72 68 72 60 38 44 42 25 21 22 22 26 27 29 33 35 40 42 46 46 41 39 45 47 46 44 44 50
61 57 59 52 47 35 25 39 37 29 24 23 26 26 20 31 28 33 58 79 87 83 47 43 43 31 23 22 23 24 27 28 30 35 35 40 42 46 47 45 44 46 47 53 50 56 53
81 79 67 65 58 50 35 33 41 38 30 28 24 26 22 27 27 35 50 86 83 61 54 45 42 32 26 23 24 27 27 29 28 30 36 43 48 46 48 48 47 46 47 56 51 58 49
92 88 86 80 70 62 49 33 44 48 38 31 30 28 25 24 35 38 52 81 71 61 52 52 41 41 33 28 28 29 30 30 26 26 31 40 46 49 51 51 50 46 44 43 57 63 59
92 94 92 91 85 73 61 45 42 55 45 41 32 32 25 27 30 45 59 59 58 54 55 60 43 44 39 35 30 32 32 28 26 25 28 36 44 52 52 53 52 48 44 48 52 51 52
91 96 93 93 94 83 72 60 44 59 54 46 43 39 23 33 32 52 61 53 50 41 58 65 53 51 40 39 35 33 32 29 25 27 30 36 42 49 54 51 51 50 46 46 49 56 56
93 99 97 95 95 94 82 74 52 55 65 54 53 43 26 32 46 45 54 50 46 44 50 62 56 50 49 41 41 34 32 27 26 28 32 37 44 55 48 49 51 46 47 46 55 49 64
96 97 98 98 93 99 88 82 62 60 66 58 56 50 40 32 45 44 45 54 46 43 43 46 45 50 51 46 44 39 31 29 32 34 39 41 43 54 47 46 45 45 40 43 50 56 59
68 88 92 98 95 99 98 89 74 61 70 61 65 63 60 49 23 36 46 52 55 39 48 43 41 51 57 53 46 40 34 36 38 40 39 43 47 40 36 34 38 41 37 47 47 60 53
77 68 83 90 97 99 99 96 77 67 74 62 71 62 52 53 40 35 36 40 50 43 49 43 36 43 60 57 52 45 41 44 42 43 45 45 47 43 37 37 40 43 45 50 43 43 48
94 70 74 82 98 98 99 95 87 83 87 76 70 61 52 44 39 39 43 44 44 42 45 50 43 35 54 65 56 49 50 45 42 47 46 46 48 48 52 51 49 50 44 39 35 32 35
95 81 63 70 98 99 98 95 89 92 80 74 67 57 56 46 45 44 32 39 39 41 45 50 39 37 43 52 56 54 55 53 49 47 50 47 51 56 59 63 57 55 44 41 36 32 29
96 92 70 69 99 99 98 98 96 91 73 56 51 56 56 55 47 37 35 43 43 33 40 43 45 42 32 53 61 64 63 59 53 52 51 56 55 57 69 63 64 38 34 30 30 27 29
96 87 82 91 99 99 98 97 93 90 80 56 47 51 62 62 46 48 42 40 42 32 36 44 40 35 42 67 68 74 74 67 64 58 50 50 59 68 66 63 46 35 30 38 39 28 27
90 87 86 97 98 99 97 95 92 98 87 66 45 54 67 68 52 45 49 44 42 33 37 44 35 27 43 72 75 82 80 70 70 60 56 54 62 66 66 64 56 35 33 38 49 45 38
92 84 88 98 98 98 97 97 96 93 92 67 48 62 75 75 73 58 47 42 38 32 33 32 35 29 41 67 83 79 79 73 73 64 63 65 73 71 76 66 52 38 34 38 49 37 37
83 92 98 98 99 98 98 96 94 94 74 57 53 66 75 74 73 74 57 41 37 30 32 31 38 37 44 61 78 86 82 73 70 64 60 55 68 68 71 62 56 35 33 38 38 33 32
95 99 99 98 99 97 96 95 90 77 70 66 65 69 75 76 71 78 70 58 39 27 25 25 27 29 35 57 69 79 78 75 63 66 59 51 49 53 48 50 38 28 28 33 32 33 34

GFSGBSN_prec_cthk_027.txt.gz
RH
32 32 28 26 26 27 27 26 28 30 36 38 41 42 41 40 41 42 42 44 41 35 33 32 31 30 26 22 17 21 18 15 15 17 23 27 31 32 33 36 42 39 38 38 48 46 62
37 35 34 29 28 24 24 25 25 25 25 29 36 40 41 42 42 41 40 42 43 38 36 34 33 32 28 23 20 23 18 17 18 19 23 28 33 34 36 38 40 41 40 38 44 56 63
33 37 36 34 30 30 28 24 24 24 24 23 26 33 38 42 42 39 39 39 43 39 37 35 34 33 29 22 20 26 20 18 19 22 22 26 33 34 38 41 38 42 42 45 46 57 63
24 24 27 32 32 29 30 28 26 23 24 23 24 24 29 35 38 39 38 39 45 43 37 36 36 35 29 22 20 26 22 20 20 22 25 28 32 33 37 40 40 40 47 51 54 55 60
17 17 19 21 24 28 30 29 27 25 22 22 23 24 23 29 35 34 37 37 41 43 41 41 38 36 29 22 19 24 23 23 25 28 29 31 33 32 35 40 42 43 43 50 57 56 57
19 18 17 17 17 19 23 25 26 26 23 22 22 23 22 28 36 34 37 35 37 36 37 42 43 39 30 23 19 22 23 22 25 30 31 32 32 33 36 39 45 43 46 47 49 47 52
24 23 20 19 18 18 19 19 22 23 24 21 22 24 24 28 38 41 48 46 45 42 42 37 44 37 29 24 23 22 24 24 26 29 31 32 30 33 35 38 42 41 45 45 46 46 49
27 30 27 22 20 22 24 25 18 21 22 21 18 23 26 30 38 40 47 50 53 52 50 42 40 40 35 26 26 24 25 24 26 29 32 34 34 37 39 39 44 45 45 45 45 44 47
25 28 32 30 24 19 26 27 27 17 20 22 19 20 25 30 40 45 45 49 50 54 53 41 35 35 33 30 27 23 25 24 26 30 32 35 35 37 40 44 45 46 49 48 45 44 48
34 31 31 33 31 29 20 25 27 28 19 21 23 22 24 29 36 41 48 46 50 53 46 33 35 36 35 31 29 21 24 24 27 30 31 34 35 36 41 43 50 47 44 49 47 43 40
42 39 38 37 36 35 32 23 24 29 28 21 21 23 20 28 40 43 53 52 54 54 53 36 36 39 35 31 28 29 25 25 27 28 29 32 37 37 42 42 45 47 47 47 47 44 42
56 52 46 42 42 39 38 34 24 25 36 29 24 23 22 20 26 33 52 62 59 65 56 37 43 42 43 37 35 32 25 26 28 31 29 33 35 38 37 40 42 45 49 47 49 43 46
63 63 65 62 56 53 49 43 35 27 29 40 31 26 24 20 24 25 46 68 71 73 41 41 47 48 45 40 44 32 26 27 29 34 31 32 34 38 42 42 42 43 48 53 50 50 47
63 65 65 65 65 64 64 53 47 36 29 42 41 32 30 22 26 24 46 72 78 53 48 49 51 51 49 43 45 30 27 29 29 30 33 33 38 37 42 44 43 46 50 55 52 51 44
68 69 69 70 69 68 68 68 56 49 38 41 45 43 36 28 33 28 50 63 45 53 50 53 49 55 50 39 30 29 30 28 30 29 32 37 36 40 46 48 46 49 53 50 55 60 54
79 79 79 77 76 78 79 78 72 60 48 53 49 47 41 34 35 37 49 52 47 42 44 53 60 54 57 42 32 30 32 28 30 30 30 33 35 43 49 51 51 51 52 52 50 52 51
86 87 87 87 86 84 85 88 84 70 56 64 62 48 39 43 44 51 50 43 44 46 42 54 61 68 57 50 37 32 32 29 29 30 29 31 33 40 50 53 51 55 55 54 48 51 49
88 93 93 96 95 95 94 91 93 85 72 76 77 50 37 41 60 55 44 40 40 36 41 52 56 72 63 58 49 40 34 31 29 28 29 32 38 44 44 50 51 52 51 55 58 49 51
68 83 98 98 98 99 99 98 98 95 83 84 80 55 41 42 58 49 44 42 36 38 40 49 48 68 67 63 55 47 39 34 32 29 31 34 39 44 41 46 50 52 52 52 51 49 49
64 73 82 92 98 99 99 98 99 96 89 90 86 76 63 48 38 40 51 49 47 34 42 47 43 67 67 66 63 52 44 40 32 34 38 39 40 39 37 37 44 49 45 48 48 48 49
88 75 67 73 92 99 98 98 99 98 94 94 90 80 56 51 54 44 41 41 44 38 44 43 40 56 58 70 70 62 50 46 40 40 43 45 45 44 39 37 40 36 40 43 44 44 47
92 90 80 78 72 97 99 99 99 98 94 99 91 71 62 33 35 49 51 47 45 38 34 50 41 45 31 58 72 67 58 51 51 51 52 50 46 44 46 46 41 39 36 37 43 46 43
97 91 88 94 66 87 98 98 99 99 97 94 78 61 56 42 47 53 45 48 52 38 33 39 43 46 34 32 63 69 63 55 54 55 57 56 54 51 50 52 51 49 43 45 49 45 38
96 94 90 97 81 71 95 99 98 98 88 79 77 68 62 62 46 43 48 47 46 39 32 40 45 52 34 32 60 68 66 61 60 58 56 58 57 57 61 54 60 38 47 49 47 36 32
89 87 94 98 85 77 94 99 98 97 92 89 79 67 66 68 48 45 54 51 49 41 39 31 40 50 43 41 57 63 72 66 64 62 58 54 57 64 69 59 44 38 42 41 41 27 31
94 91 99 97 78 82 91 98 99 96 97 87 77 74 67 72 61 44 51 56 47 45 42 36 41 45 56 58 56 66 72 73 73 69 63 58 59 59 65 62 55 40 37 39 37 30 29
98 96 96 91 82 82 95 97 98 95 97 90 83 76 77 77 73 56 52 56 49 47 42 38 35 54 53 64 66 59 66 66 81 76 67 66 65 62 59 59 51 43 44 43 44 25 29
95 95 97 80 73 87 96 98 96 94 97 93 94 80 74 79 74 75 63 55 50 42 40 38 42 48 56 64 62 58 64 70 82 76 68 63 67 69 62 66 60 44 46 40 30 24 31
96 89 86 77 82 96 98 98 97 97 98 97 96 73 63 72 89 84 66 63 60 38 31 32 27 31 37 51 51 55 64 70 75 74 65 69 60 61 57 48 44 40 33 33 25 25 32

GFSGBSN_prec_cthk_030.txt.gz
RH
44 41 37 34 30 28 24 24 26 27 29 31 33 34 37 39 40 42 41 39 38 40 38 36 35 34 32 31 24 22 22 19 20 16 18 21 25 28 29 31 35 38 39 43 46 43 62
37 41 43 42 37 34 29 26 23 25 25 27 27 29 30 37 40 38 39 38 37 41 40 37 35 34 35 32 25 25 22 21 21 19 21 23 26 30 30 32 38 39 39 43 45 57 61
30 32 32 35 40 39 35 32 28 24 23 23 24 25 27 27 35 38 39 37 36 37 41 39 36 35 36 33 25 28 24 24 21 21 21 24 27 30 31 31 34 39 43 43 45 59 58
23 23 25 27 27 29 33 36 32 28 26 23 22 22 23 24 24 31 37 35 35 37 38 41 38 39 38 34 27 28 26 24 21 21 22 25 27 28 30 31 33 37 43 51 56 58 59
21 20 19 18 18 20 23 24 27 29 27 24 22 22 21 20 21 24 31 30 35 35 35 36 39 42 42 35 28 28 28 27 23 22 24 26 29 28 28 29 33 37 46 50 51 59 59
19 21 21 20 18 17 17 19 21 22 22 23 20 22 22 21 21 22 25 28 31 33 34 33 37 42 39 36 30 26 29 30 29 29 30 30 32 29 29 29 40 42 44 44 55 52 53
20 20 21 20 21 19 18 17 21 21 18 20 18 14 17 18 21 25 24 31 38 42 42 38 39 38 36 39 33 27 28 31 29 31 32 31 32 29 30 30 36 37 40 44 46 44 47
24 26 25 24 22 22 22 19 17 26 24 18 19 17 15 15 15 23 29 34 41 44 45 44 41 40 38 38 37 30 30 30 29 31 31 33 30 28 28 31 34 37 40 45 43 41 41
28 29 31 30 29 26 25 24 19 23 28 26 20 19 18 14 14 17 25 35 39 43 51 46 42 40 36 39 38 33 29 29 29 31 31 36 32 31 31 32 34 40 43 42 41 39 42
38 35 33 34 34 32 29 29 26 20 26 29 28 25 20 18 14 18 21 30 39 50 48 39 42 37 38 35 38 32 28 29 30 30 32 36 33 34 36 36 38 44 41 44 39 38 45
46 44 41 40 36 35 36 32 32 29 23 28 36 29 27 20 21 21 24 29 39 52 41 35 41 39 35 32 34 34 31 33 31 29 32 32 32 35 37 38 40 45 44 47 49 44 43
55 55 55 51 50 45 38 40 36 35 32 27 34 37 34 30 21 21 28 36 49 58 47 36 43 42 38 36 34 36 30 33 37 31 31 35 33 35 41 38 40 42 44 46 50 49 48
64 62 61 62 61 59 57 50 46 42 38 31 38 35 32 35 24 31 35 40 61 59 38 36 43 47 40 35 37 34 32 36 36 30 30 31 33 35 38 41 39 42 42 50 51 53 51
64 63 61 61 62 60 60 61 59 53 49 46 38 45 35 25 30 39 51 48 51 27 38 41 42 47 44 36 37 38 35 39 37 27 30 32 37 33 33 43 46 40 43 47 57 55 45
65 64 63 61 60 61 62 61 62 61 59 56 49 47 52 31 22 43 67 62 25 27 38 40 46 49 49 41 39 41 37 39 36 27 28 32 33 34 35 43 44 48 44 47 52 55 49
73 70 70 69 69 69 67 69 69 68 69 67 58 65 52 42 32 42 67 59 23 28 38 40 42 48 51 47 40 43 42 41 35 26 26 31 35 33 37 46 50 52 49 49 50 56 51
77 78 81 82 81 77 77 76 76 79 76 77 78 79 53 49 47 52 62 52 29 36 35 48 50 46 50 54 45 46 46 43 28 27 29 32 32 40 36 45 53 53 51 49 53 49 45
80 84 84 87 88 91 88 88 87 87 87 86 83 80 66 64 69 53 57 30 35 41 45 43 51 58 56 54 52 44 38 32 26 27 30 31 36 36 33 43 49 55 52 53 55 53 49
84 84 84 83 90 95 99 95 95 94 97 92 81 87 87 79 64 59 27 29 49 54 47 59 41 44 48 63 60 50 43 31 31 30 31 35 36 38 36 37 45 50 51 52 53 54 46
73 68 71 75 83 93 98 99 97 99 99 99 94 99 99 84 52 50 21 23 46 54 53 61 47 46 52 63 63 55 49 40 38 33 34 32 32 31 37 33 39 48 48 49 50 52 44
69 66 66 63 58 54 76 87 99 99 99 99 98 97 82 75 65 35 33 23 35 52 53 61 48 47 49 64 68 63 58 54 48 41 36 36 36 31 31 36 37 36 42 46 47 43 45
82 84 86 85 70 58 72 91 99 99 99 99 96 91 83 72 59 39 40 34 38 43 44 48 48 46 45 62 69 73 67 62 61 48 42 41 43 41 42 41 41 38 35 38 37 37 36
81 84 92 98 87 72 71 77 99 99 99 97 91 89 86 79 73 59 43 40 35 43 42 38 32 45 43 61 74 77 79 72 66 60 47 46 45 48 45 46 45 51 38 34 32 30 31
78 84 87 97 95 84 71 69 98 99 98 81 79 87 92 85 84 51 34 47 45 40 38 45 44 49 46 44 55 48 73 70 70 60 58 52 49 54 53 60 67 36 36 35 35 36 40
82 77 83 90 96 91 71 64 95 98 98 90 89 89 90 89 66 60 50 52 57 55 40 43 44 37 46 49 49 46 63 76 71 62 62 58 60 59 66 52 41 37 33 33 36 42 44
84 75 83 93 96 85 77 74 97 98 98 95 88 90 88 81 72 76 55 57 63 61 50 42 45 41 47 59 54 54 49 68 75 69 63 63 64 65 63 55 56 37 40 42 39 32 34
94 98 96 98 90 89 86 86 98 99 99 92 91 88 88 84 87 84 74 78 59 56 49 45 48 50 50 61 73 54 56 50 65 78 78 67 65 70 61 60 42 35 37 43 45 29 38
94 92 94 90 87 96 80 81 91 98 99 95 91 90 90 86 90 86 86 91 70 62 54 47 50 44 58 57 70 56 63 56 53 61 73 68 62 65 61 68 55 38 40 46 40 36 30
88 87 92 93 95 89 67 74 90 99 99 98 98 94 88 93 88 79 79 85 86 56 51 48 27 29 40 53 54 55 62 68 57 65 66 77 60 59 51 46 42 40 40 48 42 34 33

GFSGBSN_prec_cthk_033.txt.gz
RH
44 44 47 47 43 38 33 29 26 26 24 24 25 25 28 30 36 40 40 40 39 37 36 35 37 36 33 37 33 29 26 23 19 18 19 19 23 29 38 32 31 33 39 42 41 39 47
44 42 39 39 40 42 42 40 34 30 26 24 24 24 25 25 27 31 37 37 38 38 39 39 39 38 38 38 33 29 28 24 22 22 20 22 28 30 32 32 36 40 33 38 41 48 54
34 33 33 33 33 34 35 37 40 38 33 27 26 25 23 24 25 25 28 30 34 38 38 37 39 41 41 36 34 32 31 27 24 24 21 23 24 28 36 32 33 34 35 37 35 47 55
32 31 30 28 29 29 30 31 33 33 35 34 28 27 28 25 25 24 25 25 28 33 33 36 39 41 39 36 36 35 34 29 26 24 21 21 23 26 29 32 27 32 37 49 57 51 54
28 26 23 22 22 23 24 23 24 27 27 28 30 26 25 26 24 24 23 25 26 27 31 30 38 40 38 38 37 36 37 31 27 25 22 20 23 26 33 29 38 33 42 57 53 45 53
23 22 21 20 20 20 19 19 19 17 20 20 22 24 20 20 22 23 23 23 24 26 31 32 36 38 32 36 38 36 39 34 28 27 23 23 24 28 32 41 39 40 35 38 44 51 46
20 20 19 19 18 19 19 19 18 18 17 21 20 18 19 16 12 15 19 28 36 44 46 34 43 29 33 35 37 35 39 36 33 32 28 29 29 31 34 38 38 46 41 42 49 58 42
25 26 26 26 23 22 21 20 19 19 19 21 25 21 20 18 15 10 14 24 33 32 30 35 36 37 40 38 38 36 38 39 35 33 34 35 30 28 34 32 31 36 39 37 46 39 32
29 30 29 30 30 29 29 28 24 21 22 20 27 27 25 22 18 9 13 20 29 28 35 31 35 36 38 38 40 38 40 39 36 34 36 32 37 31 27 28 33 38 40 45 41 48 32
37 37 35 35 34 34 32 29 31 27 27 22 26 29 27 27 19 15 17 18 24 26 33 25 33 36 40 42 36 36 38 38 38 33 34 33 38 28 25 36 34 42 35 50 40 34 43
45 46 46 45 44 42 37 35 32 34 30 31 26 34 35 25 30 29 40 30 21 24 28 23 28 36 38 39 36 37 39 38 38 34 35 37 34 30 30 36 39 45 53 44 46 44 45
52 53 53 53 52 51 51 45 42 40 37 33 33 30 41 33 26 23 39 41 31 31 30 27 34 34 38 39 34 39 36 36 37 37 35 40 35 31 32 37 39 43 42 43 47 48 50
61 61 61 58 59 58 58 58 55 54 48 41 38 34 42 40 32 24 38 44 50 33 16 24 32 37 39 38 35 35 38 36 36 41 39 41 37 32 33 43 39 40 43 49 53 51 48
68 68 66 65 64 64 63 61 61 63 62 58 50 43 41 42 42 39 44 56 48 19 20 32 31 38 40 39 37 37 39 38 36 37 42 43 39 32 30 34 44 42 42 46 72 71 54
71 70 69 67 65 65 64 61 62 65 64 65 63 53 46 50 45 48 56 68 40 20 20 24 37 45 42 42 41 40 36 35 35 34 40 45 38 38 36 37 36 47 49 37 45 49 50
70 68 68 66 65 66 65 63 61 63 68 69 72 62 53 57 58 51 67 57 40 24 24 31 33 43 49 47 42 42 41 36 35 33 40 44 44 42 41 40 39 39 51 50 50 68 59
68 69 68 66 67 70 72 74 72 71 75 77 81 74 54 64 76 75 64 50 25 26 31 27 36 50 51 56 47 43 42 39 38 36 40 43 40 44 45 39 39 39 41 46 50 48 57
70 71 71 70 68 70 75 80 85 86 89 90 85 74 67 69 84 75 58 39 19 19 35 45 56 53 49 55 62 45 44 47 44 40 43 43 42 42 48 42 35 49 48 49 53 57 56
75 75 76 72 76 77 78 84 88 92 97 98 94 83 83 84 82 69 49 38 23 25 33 41 47 74 67 57 58 61 51 50 51 45 47 45 39 48 49 45 40 40 54 56 56 53 62
78 76 75 75 76 80 84 89 92 97 96 99 99 99 92 94 76 72 58 39 32 22 34 41 45 62 66 73 66 63 61 58 48 48 50 38 39 37 44 37 45 41 37 48 51 62 52
78 77 70 68 75 78 87 87 93 97 99 99 98 96 87 85 81 58 43 36 40 27 35 44 45 64 59 59 60 64 65 67 54 44 42 42 46 42 38 39 41 40 40 43 49 50 55
59 58 58 61 69 66 63 75 79 94 99 99 98 95 91 80 75 74 67 55 45 31 34 52 54 49 74 78 66 76 73 71 65 52 41 43 47 43 41 38 40 40 41 41 43 44 44
67 73 77 83 84 82 69 60 58 93 99 98 98 90 84 81 86 84 67 51 45 35 37 51 50 51 53 69 79 76 89 77 84 71 55 51 51 52 47 40 40 44 38 44 41 39 41
75 84 91 95 92 87 86 70 59 68 98 98 89 85 91 83 95 73 54 63 58 46 33 44 61 63 47 55 72 78 84 83 83 73 74 70 60 59 54 57 63 37 37 38 38 37 36
73 80 96 98 94 91 91 90 78 64 99 93 93 92 90 92 78 73 76 78 71 57 61 61 60 55 54 55 53 56 80 85 75 81 75 73 65 64 62 57 42 34 39 41 38 37 38
81 89 86 92 91 88 93 97 80 68 82 87 94 92 91 85 87 82 79 78 73 56 68 66 71 73 66 58 56 47 49 55 69 83 71 70 71 69 61 62 57 36 41 41 37 38 40
80 90 98 97 93 93 92 98 80 66 89 97 98 94 92 88 89 86 85 79 67 64 62 79 79 77 59 62 62 43 51 50 60 78 91 80 75 73 67 62 46 38 45 51 47 31 50
88 83 83 85 91 95 98 96 73 65 83 98 96 95 88 94 91 96 85 80 70 79 69 67 81 80 73 69 44 42 60 67 61 52 81 84 73 72 66 69 63 42 45 41 30 39 46
89 97 96 83 88 95 98 89 73 69 94 99 98 96 91 96 98 92 90 86 79 69 67 61 48 51 61 57 39 42 56 73 62 63 55 71 82 71 59 54 48 46 43 44 38 43 48

GFSGBSN_prec_cthk_036.txt.gz
RH
51 62 48 44 47 46 49 48 41 36 31 29 28 26 25 27 26 28 29 31 32 34 36 35 32 33 33 37 37 33 31 27 24 21 20 20 19 23 32 37 29 27 29 35 36 41 44
47 41 47 55 51 48 47 44 45 45 42 37 31 29 25 26 27 27 27 28 29 30 33 33 34 34 40 41 36 35 33 28 26 23 21 22 23 29 26 30 32 40 37 31 36 44 50
41 40 48 42 39 39 41 45 40 37 38 38 41 36 30 28 28 26 26 27 27 28 30 31 31 35 37 37 38 37 35 31 30 26 25 25 24 23 26 30 31 32 28 32 42 42 46
50 45 34 39 42 37 31 31 30 32 34 34 34 34 37 31 29 28 28 26 26 27 29 29 30 33 37 30 38 36 37 36 34 29 26 26 23 21 23 24 29 26 28 38 45 51 65
34 40 38 31 31 33 30 27 26 26 27 28 30 31 30 29 24 26 27 28 26 28 28 29 30 33 37 31 33 34 37 37 34 29 27 24 21 21 22 26 27 30 33 39 43 47 53
27 29 30 30 28 28 30 28 21 20 20 21 21 22 24 26 25 17 19 24 26 29 34 35 34 38 30 28 35 36 38 40 36 31 28 26 22 22 22 28 35 43 41 40 47 50 51
20 22 24 25 26 26 26 21 21 19 19 18 19 19 20 19 18 14 10 11 27 47 52 43 41 38 32 33 32 32 37 40 39 35 31 28 27 25 26 31 30 38 43 46 46 47 43
23 26 27 26 27 29 29 27 24 21 17 19 19 20 26 20 19 16 10 12 25 38 33 31 31 35 33 38 34 32 36 43 41 39 33 34 32 30 29 34 30 31 36 41 42 42 39
29 30 32 31 31 32 32 32 33 30 27 22 21 19 27 27 19 14 11 9 25 34 30 17 20 22 29 34 38 38 35 43 42 42 39 36 35 42 31 31 31 28 29 34 40 48 42
32 35 37 37 37 36 36 36 35 35 32 30 25 22 27 30 18 17 13 13 14 25 27 14 16 22 23 30 33 38 39 43 44 44 39 39 34 42 36 26 28 31 30 39 44 43 36
36 40 42 43 45 46 45 43 41 39 41 34 32 27 27 33 35 29 36 27 44 26 28 10 12 21 24 26 28 35 40 44 44 43 42 36 37 37 33 24 30 35 42 41 45 42 42
40 45 46 48 50 54 54 53 52 51 47 45 39 33 30 33 34 24 37 45 31 35 28 11 24 23 23 26 30 34 37 41 42 43 44 38 38 39 37 27 33 38 41 49 50 37 44
46 48 49 53 58 62 62 59 58 57 57 51 47 44 36 36 40 38 42 45 50 34 12 14 30 29 23 27 32 35 36 38 40 44 43 39 37 43 41 31 35 40 44 47 49 49 47
54 55 58 59 65 68 71 69 65 65 66 63 59 56 47 40 45 50 55 63 39 14 20 21 21 31 29 30 34 33 39 40 40 41 44 43 41 42 40 32 41 41 38 46 60 66 59
62 63 66 72 73 75 77 76 75 72 71 70 70 68 65 56 54 61 64 75 35 14 16 18 36 41 47 33 34 38 33 37 40 40 43 44 42 40 42 32 35 47 42 38 46 60 70
75 76 76 78 77 78 77 79 80 78 76 75 75 75 71 69 70 68 75 63 38 15 16 27 27 36 45 44 40 39 38 35 41 41 41 41 49 43 44 42 36 33 46 56 48 57 67
82 80 79 78 76 75 77 78 81 83 84 85 79 74 67 75 78 80 70 45 28 21 18 20 34 37 36 39 53 48 42 42 43 41 40 39 46 47 47 49 42 39 38 48 60 50 59
84 82 79 76 74 74 75 78 80 85 91 92 87 75 72 80 82 77 62 30 27 31 23 25 28 42 37 40 53 63 50 45 46 46 40 38 43 50 49 47 43 40 42 34 50 57 55
83 83 80 77 76 76 75 78 81 87 90 94 91 90 89 80 79 67 51 47 37 34 30 28 30 35 39 49 79 78 74 53 50 50 41 41 42 54 51 53 53 46 34 54 50 50 54
84 81 80 79 79 76 79 83 84 88 92 98 98 99 96 95 73 67 60 44 40 30 38 34 29 32 35 38 72 83 79 62 53 52 50 50 47 44 53 47 54 48 39 44 56 64 60
84 83 81 80 78 78 79 83 87 90 94 99 99 96 81 79 73 55 65 45 46 43 36 41 36 37 41 40 57 76 82 82 74 57 55 55 52 49 49 48 47 48 46 40 44 64 66
83 81 80 80 79 78 79 78 88 94 95 99 98 97 87 71 78 81 74 60 48 42 46 37 36 30 32 39 66 84 90 88 78 69 58 57 58 57 57 54 45 45 48 45 41 31 46
75 70 65 61 60 60 65 72 78 91 98 99 99 96 90 80 86 89 78 57 50 47 55 42 35 29 29 36 53 68 79 94 91 86 76 58 55 63 63 54 50 45 40 43 40 46 45
69 70 70 69 69 72 72 67 63 63 79 99 99 94 98 91 86 77 70 62 57 60 56 51 48 37 26 39 67 57 67 84 91 83 84 70 60 61 73 67 59 43 39 38 41 42 42
72 70 64 65 67 70 75 80 83 76 69 96 98 98 95 96 78 78 71 75 74 76 71 58 52 37 38 45 86 77 75 88 86 94 87 75 72 69 69 61 46 42 39 38 43 36 36
63 62 63 66 73 75 81 82 93 94 84 82 86 96 97 93 84 62 78 75 83 81 77 57 49 55 61 52 86 92 82 66 71 70 81 87 79 81 70 64 65 49 42 39 40 50 42
58 65 79 87 78 75 88 98 99 98 93 74 72 95 99 98 84 85 84 77 77 79 72 60 56 56 63 57 76 86 61 52 53 58 76 87 88 84 78 73 58 48 39 48 57 40 42
68 71 73 81 84 86 92 98 98 98 97 76 66 97 98 98 92 86 84 79 83 81 74 60 69 64 58 65 82 80 58 40 36 44 69 80 98 88 82 79 72 47 45 48 49 45 52
64 75 89 78 98 86 93 95 97 99 98 81 82 99 99 94 98 81 81 86 90 85 79 71 61 88 81 67 61 59 59 52 45 61 55 79 77 91 86 69 60 49 53 52 50 50 46

GFSGBSN_prec_cthk_039.txt.gz
RH
52 49 62 71 61 55 48 46 50 49 48 40 38 34 33 31 30 30 30 28 28 29 29 29 29 29 27 33 32 31 34 32 29 26 22 20 20 22 23 27 29 29 24 30 33 35 36
63 60 55 51 49 53 62 51 52 53 44 39 44 43 37 35 33 31 30 28 26 26 28 29 31 29 30 36 32 37 36 35 30 28 25 22 20 24 25 26 28 30 34 29 34 37 37
61 63 67 63 48 40 43 55 43 40 54 61 50 38 36 36 35 33 32 31 27 25 27 28 30 32 33 31 28 36 39 38 30 29 28 24 23 25 26 23 24 26 29 25 32 39 50
38 52 54 56 66 60 43 40 46 50 40 37 42 51 38 32 29 29 33 32 30 28 27 27 28 32 35 27 25 28 35 37 32 31 31 29 25 23 24 22 23 28 24 32 33 46 49
39 31 35 37 40 42 48 38 31 38 41 33 30 35 34 34 31 23 21 25 29 28 28 31 30 33 37 33 29 24 30 36 36 34 31 30 27 23 23 23 23 26 31 33 37 46 51
19 30 31 28 27 29 32 33 34 29 33 30 32 26 26 28 28 27 17 16 17 21 29 43 41 42 33 33 29 31 29 34 39 36 32 31 27 24 23 25 32 32 35 38 42 47 59
19 20 21 30 23 27 24 24 26 30 34 28 33 27 22 18 19 17 14 16 19 31 44 45 43 34 31 35 36 32 31 32 37 39 36 33 31 28 24 23 28 31 32 36 43 47 58
20 21 23 26 27 28 28 28 29 29 27 26 24 23 24 19 20 17 14 9 16 40 35 27 30 34 33 35 39 35 32 36 38 42 40 36 34 25 24 27 28 33 33 34 40 50 48
20 22 26 28 29 31 33 33 33 33 32 32 32 27 23 21 19 18 14 8 7 29 33 16 12 14 18 24 32 34 33 34 39 41 39 38 30 31 36 35 33 31 32 29 38 46 49
22 27 28 29 31 33 38 39 39 38 37 36 37 36 28 23 23 27 19 19 11 30 34 18 8 10 12 15 23 29 36 35 42 41 41 41 36 36 41 42 36 28 26 27 38 44 47
23 28 29 31 36 41 43 44 44 46 44 42 42 43 36 28 31 28 42 24 30 22 29 10 12 12 12 13 17 25 31 39 41 45 45 40 39 39 40 41 33 25 31 33 35 42 40
23 28 30 32 40 44 46 48 50 52 53 51 49 50 50 35 28 32 45 41 35 38 47 10 16 17 19 18 18 21 27 32 37 45 46 43 42 38 37 37 31 25 33 38 39 43 50
24 29 31 36 46 49 51 53 58 62 62 61 58 56 57 48 30 39 44 58 46 42 8 8 21 21 19 21 21 24 27 30 35 41 43 43 42 39 39 39 37 31 37 49 50 56 51
25 30 33 40 50 55 56 57 64 70 71 70 68 67 64 59 43 50 50 70 59 18 14 11 13 34 30 22 25 27 32 33 33 37 44 47 48 41 38 40 41 31 36 50 51 61 52
22 35 39 47 62 64 64 67 74 78 80 82 80 76 71 71 60 59 62 73 38 25 15 12 23 37 33 41 31 31 33 32 34 34 41 47 43 42 39 39 44 34 41 37 46 56 65
26 35 44 57 78 76 76 80 87 90 94 95 89 83 78 81 77 77 79 53 30 17 13 19 29 31 40 49 62 48 42 32 36 35 41 42 51 44 42 42 44 37 38 51 50 70 67
28 41 52 76 87 87 89 90 94 95 96 99 97 89 79 86 85 87 69 44 32 30 29 25 23 30 40 44 51 54 58 42 36 38 41 43 49 49 48 46 46 40 39 46 49 65 70
38 51 68 88 91 92 91 92 93 95 98 99 99 91 86 92 88 74 55 48 41 34 31 29 22 26 35 47 51 52 56 54 57 57 48 46 50 55 49 50 49 41 43 40 57 53 59
55 69 87 90 91 92 93 93 94 95 98 99 98 97 96 92 81 63 51 45 42 42 38 37 34 25 28 35 52 59 62 63 66 73 59 52 49 55 52 47 48 49 48 44 44 48 52
82 90 90 90 90 91 91 93 94 96 98 99 99 98 95 86 67 55 53 47 50 48 44 38 34 35 28 39 51 48 53 57 71 74 72 71 53 48 47 45 50 51 48 45 47 58 52
91 89 87 86 87 89 90 92 94 96 98 99 98 91 76 76 63 66 68 55 51 53 45 42 37 32 28 32 43 44 45 55 64 77 75 78 69 50 43 46 48 55 54 50 47 44 46
92 90 89 89 89 89 90 91 92 93 99 99 98 91 84 71 76 78 77 59 49 46 46 47 40 30 34 36 28 38 44 50 68 80 88 81 75 62 57 48 44 52 54 52 51 46 48
90 88 86 85 86 85 85 85 86 87 98 99 99 96 94 82 85 86 60 46 49 63 59 52 45 42 35 27 39 45 41 47 58 74 92 97 85 70 61 59 54 58 48 51 50 47 47
88 84 78 75 72 70 71 73 78 85 96 99 98 97 99 96 88 70 59 59 57 67 65 64 57 50 28 36 38 53 52 57 62 72 88 92 97 79 71 68 77 42 44 48 46 48 45
76 72 72 76 78 79 77 75 72 68 77 93 96 99 98 98 86 77 70 64 58 73 75 69 54 51 52 43 46 59 67 67 60 69 83 82 97 94 81 69 65 55 47 45 45 44 42
72 77 80 80 80 77 75 69 68 67 72 83 91 99 98 99 97 62 67 67 72 78 77 71 61 64 60 51 51 72 74 62 61 65 69 74 96 98 96 80 72 53 53 45 42 43 38
79 77 74 68 65 68 69 72 73 72 74 80 80 76 99 98 96 90 82 70 67 77 78 69 69 72 67 62 66 62 74 69 75 73 77 76 77 95 97 95 66 54 52 47 51 45 39
71 70 66 63 66 69 73 79 81 79 82 85 85 78 76 93 93 90 85 80 73 79 73 56 81 77 78 74 71 75 70 80 71 75 76 74 76 87 99 90 81 66 58 50 43 43 47
77 71 68 68 71 76 81 90 93 95 94 90 85 86 85 84 96 90 86 83 82 72 69 73 71 74 72 65 62 65 72 66 65 73 70 74 60 69 75 91 76 69 75 63 60 57 58

GFSGBSN_prec_cthk_042.txt.gz
RH
50 50 53 57 57 52 71 71 65 54 51 52 50 48 52 42 35 31 30 30 29 27 27 27 26 26 28 31 31 25 28 33 34 32 26 25 23 21 26 25 26 29 28 29 31 32 38
37 38 45 47 56 58 55 59 73 69 60 55 55 54 51 43 44 36 33 30 29 28 28 26 25 26 32 38 29 27 29 36 36 34 28 26 24 24 24 24 27 28 30 29 28 31 38
29 35 36 47 46 59 64 65 57 55 68 55 52 56 59 52 42 36 38 35 32 30 29 26 26 27 35 33 29 30 33 34 36 36 29 28 29 27 24 24 26 27 26 26 27 34 40
17 21 26 28 48 45 53 62 64 58 50 60 54 42 48 56 50 33 29 34 34 30 31 27 27 28 35 27 28 27 29 30 36 37 31 31 33 27 25 25 23 25 25 31 33 37 42
17 18 19 21 19 37 37 36 47 54 50 47 46 51 44 36 42 47 32 28 24 26 28 28 31 36 36 31 33 30 23 30 32 34 31 34 35 28 25 25 24 21 34 36 38 37 43
19 18 18 18 23 19 29 41 33 37 42 45 43 40 36 42 29 36 31 24 17 19 19 25 40 44 36 30 33 35 29 28 31 35 33 36 36 31 26 26 27 29 36 36 36 43 48
18 19 18 17 17 21 21 25 41 28 32 34 39 46 36 36 30 33 24 23 26 35 34 30 36 36 34 36 37 36 33 27 32 35 37 36 37 35 24 22 22 30 33 35 33 38 46
18 18 18 18 19 23 23 25 29 36 32 32 30 29 38 37 29 33 29 16 22 37 34 30 28 29 26 35 40 36 36 34 33 38 40 38 37 31 25 24 24 30 32 33 34 40 48
19 19 19 19 21 23 25 26 29 32 34 35 34 33 31 28 21 16 29 26 33 34 32 17 15 18 16 21 30 34 36 35 35 41 39 39 39 29 30 28 32 33 33 32 35 37 42
20 20 19 20 23 26 27 29 34 37 36 37 38 38 38 33 19 21 24 23 35 44 30 17 9 9 11 14 17 22 32 34 36 39 41 41 41 34 36 38 38 38 32 35 30 34 42
21 21 20 21 24 29 28 33 40 41 43 43 44 45 44 38 27 25 35 27 36 32 16 8 12 10 12 12 9 15 25 34 33 38 40 40 43 42 39 39 41 37 36 35 32 35 38
20 21 21 21 22 28 29 36 42 45 48 47 48 51 50 45 36 30 36 33 45 37 39 12 13 16 19 16 12 13 15 26 31 37 40 39 41 42 39 40 42 40 38 34 36 38 43
20 20 19 21 22 28 30 34 44 47 52 53 54 56 57 53 44 36 42 50 57 50 11 7 19 19 18 18 18 17 20 24 31 37 38 40 42 43 43 42 41 41 40 45 46 50 48
20 18 18 19 25 33 34 39 47 53 56 61 64 65 64 60 58 44 51 59 62 27 14 14 15 24 24 21 19 20 23 29 27 29 33 37 44 43 41 43 42 40 41 50 51 58 43
22 19 20 19 24 33 36 41 56 64 65 71 76 76 70 68 69 58 60 65 47 38 25 14 17 24 27 28 29 28 27 28 30 29 35 40 39 38 42 43 43 41 46 42 45 53 56
23 20 20 22 23 29 41 46 66 76 75 80 82 83 76 84 79 74 71 52 44 35 22 24 23 22 34 41 45 43 39 32 33 34 36 36 42 39 42 45 43 42 42 48 50 55 59
22 20 22 23 29 33 44 56 82 90 85 90 94 92 79 93 93 86 67 51 39 37 35 31 26 31 34 44 46 47 47 49 44 40 38 39 41 42 46 46 48 46 43 46 45 58 61
21 21 25 33 35 39 51 66 96 95 95 99 99 95 89 95 95 75 55 52 53 53 47 39 30 26 32 46 56 52 54 52 58 57 56 55 46 45 40 42 47 47 45 45 51 54 57
22 23 34 38 43 51 62 84 98 98 98 99 98 95 93 89 80 64 61 62 63 62 56 52 41 29 24 45 52 54 63 66 66 64 75 73 65 56 47 45 44 49 48 47 50 52 54
23 30 42 51 60 69 81 96 98 98 98 99 99 97 92 83 66 67 72 67 65 61 57 54 46 39 32 29 40 48 56 58 64 72 73 76 83 71 59 51 52 52 51 47 48 57 52
29 40 54 69 81 90 96 97 97 98 98 98 98 88 79 72 68 71 68 60 59 58 58 54 48 44 41 36 28 29 41 62 63 66 66 73 91 90 70 61 56 52 53 52 49 49 55
40 55 75 92 97 97 96 96 97 98 99 98 96 85 82 76 75 76 71 56 54 61 58 55 54 45 40 35 35 32 32 38 54 60 77 75 86 94 71 64 59 54 51 52 51 52 52
63 82 92 96 97 96 96 96 96 98 98 98 95 92 89 85 84 79 51 43 64 72 63 60 54 52 46 42 36 33 33 40 46 55 70 69 75 89 81 79 72 68 40 47 53 55 52
90 94 96 96 95 95 95 95 95 97 99 99 97 98 98 88 85 55 63 72 66 69 66 63 63 68 54 51 46 42 41 40 45 49 54 64 62 85 91 84 96 45 49 44 48 51 54
95 96 95 93 90 88 86 87 88 94 98 98 99 99 99 95 81 79 67 67 80 71 66 64 64 70 72 69 65 61 54 49 48 50 58 63 71 74 83 94 83 56 50 48 51 46 47
94 85 76 71 69 71 73 75 78 79 86 97 98 97 99 98 86 71 81 80 81 78 78 57 66 73 79 79 81 67 65 50 55 61 67 65 67 68 84 91 96 75 57 54 57 54 44
71 74 74 74 74 75 76 79 82 88 88 89 90 94 99 98 88 88 80 72 78 78 72 70 65 74 79 82 86 77 67 55 59 65 72 77 83 83 87 90 79 83 74 59 68 56 61
82 81 78 75 75 76 80 82 82 86 92 95 89 88 95 97 90 93 80 76 76 75 67 58 78 75 81 87 91 79 72 64 55 54 61 74 86 82 88 90 86 80 79 74 74 67 70
79 77 76 76 75 75 73 71 69 73 85 94 94 82 93 97 96 93 89 84 87 71 77 80 71 70 75 88 90 79 75 74 60 60 47 68 67 78 76 66 55 63 82 78 77 73 72

GFSGBSN_prec_cthk_045.txt.gz
RH
32 31 32 36 38 45 43 50 56 50 68 71 69 56 47 50 46 45 42 38 33 30 25 25 24 25 25 29 28 30 34 34 31 33 32 28 28 28 26 26 25 25 25 26 25 26 33
25 27 29 28 29 30 36 43 53 55 58 69 67 69 58 58 54 49 47 41 37 33 28 25 24 24 28 36 28 30 27 30 31 35 33 30 28 29 28 24 28 27 24 24 26 29 37
19 17 16 16 18 22 30 29 47 52 59 60 65 68 62 56 56 58 58 45 44 37 32 27 26 25 29 27 26 30 32 33 35 38 36 32 28 33 32 24 26 23 25 25 28 31 40
17 15 15 14 16 16 18 25 28 43 53 64 55 63 61 60 58 59 54 49 39 34 35 30 27 30 30 25 25 30 30 33 33 36 38 34 31 34 35 24 24 23 24 25 29 36 38
18 18 17 16 16 16 17 18 25 27 34 44 62 56 52 57 51 50 53 48 40 28 29 29 31 34 35 30 30 33 33 31 34 35 36 33 36 36 36 28 26 23 26 31 35 36 43
18 17 17 17 17 17 16 19 20 23 31 32 33 48 50 55 52 44 35 38 46 30 26 28 35 37 32 30 33 35 36 36 29 35 36 33 39 38 37 33 28 24 29 32 35 36 42
18 18 15 17 17 17 16 18 22 20 25 32 41 32 36 38 56 38 38 36 34 43 45 32 33 31 30 37 38 37 37 34 31 35 38 34 39 40 40 30 25 25 31 31 32 34 38
18 18 18 18 19 18 18 22 26 23 26 31 32 42 33 24 34 46 41 45 45 49 46 37 33 31 22 27 40 38 42 37 33 36 41 40 35 40 39 32 28 29 32 31 31 35 38
19 19 18 20 19 18 19 21 22 26 27 30 33 34 38 33 26 28 31 46 55 57 46 32 22 21 20 20 25 30 40 41 37 37 38 41 38 39 39 33 31 29 31 34 34 34 38
22 20 21 21 19 19 19 20 23 26 29 35 37 39 36 35 31 26 26 36 42 50 51 29 19 13 19 21 23 17 28 40 39 37 40 42 39 41 40 35 32 33 32 37 40 35 39
23 23 20 23 20 19 19 20 26 26 29 36 39 42 42 36 37 31 41 35 39 43 20 9 21 13 16 17 12 14 15 31 38 40 41 42 41 41 44 38 39 35 41 43 43 41 37
24 21 19 19 19 19 19 19 23 26 30 37 40 44 45 42 39 40 29 36 48 43 32 13 14 21 21 20 13 11 14 20 33 37 42 42 42 42 42 39 43 42 43 42 43 45 46
25 23 22 19 19 19 18 19 23 23 30 38 45 48 50 48 49 46 35 45 54 54 15 10 19 22 22 24 18 17 14 20 31 39 38 39 40 41 43 44 42 46 45 50 48 51 47
28 24 22 21 21 18 18 20 24 27 33 42 51 56 57 51 57 53 46 55 56 35 26 16 17 21 25 25 19 19 21 20 26 30 35 38 43 41 42 44 43 45 48 55 52 57 44
24 25 25 22 21 19 20 23 24 28 35 46 59 64 59 56 66 64 56 60 50 47 34 26 21 21 27 27 29 24 26 27 21 26 31 39 38 33 36 40 45 46 52 45 48 54 57
29 29 23 23 22 21 21 22 26 27 37 53 69 75 62 71 75 77 67 56 51 49 41 29 32 30 31 32 32 36 36 37 33 30 30 34 38 33 33 37 43 47 49 53 56 57 63
31 27 23 23 22 21 22 29 30 32 42 62 82 89 66 81 83 86 71 55 55 47 44 35 33 31 38 41 40 37 39 48 49 43 41 38 37 35 33 40 46 49 50 50 51 59 54
30 23 23 23 21 23 29 29 32 42 49 71 94 97 79 88 88 76 67 65 60 57 48 43 36 33 34 45 42 37 46 43 54 53 58 54 46 46 39 41 45 48 51 53 57 55 61
27 23 23 24 22 28 30 34 41 47 59 80 98 97 91 94 83 70 73 75 74 66 62 60 53 42 31 35 46 44 51 62 58 58 64 60 67 60 46 44 47 47 48 51 56 59 50
31 24 25 24 25 28 31 41 51 57 68 91 99 97 98 92 78 78 86 82 78 68 69 68 63 55 46 38 37 48 55 67 62 65 66 65 69 73 77 72 73 67 60 55 56 61 57
25 25 25 24 28 30 39 55 60 67 80 98 97 87 89 85 81 82 82 76 75 72 70 68 60 58 56 56 43 42 45 51 62 75 73 71 76 73 72 71 68 66 64 59 52 50 53
26 26 25 27 30 35 53 66 76 81 93 98 94 88 89 88 88 87 82 68 75 77 73 69 66 63 58 54 54 47 48 46 51 57 68 78 78 81 74 65 66 65 60 59 59 57 56
32 33 29 30 37 54 67 80 93 98 98 94 91 93 95 90 86 80 72 79 77 76 72 67 69 69 65 55 54 49 44 41 46 54 61 69 76 82 79 75 69 57 63 66 62 56 56
34 30 32 44 58 68 81 94 98 98 97 97 93 95 96 86 79 80 79 77 77 78 79 75 74 76 68 63 56 52 53 54 48 45 52 59 67 74 69 65 69 37 48 59 65 58 56
36 41 51 64 74 84 94 98 98 98 98 98 98 97 94 86 89 84 82 81 81 78 78 75 73 75 77 72 67 61 57 55 55 47 50 51 56 61 63 66 49 40 38 49 84 66 62
56 70 86 95 97 98 98 98 98 98 98 98 98 97 95 92 83 92 90 85 82 74 80 73 75 77 78 81 85 82 70 55 62 63 59 58 59 63 65 66 58 25 29 47 68 66 61
97 98 98 98 98 93 91 91 92 95 96 98 97 96 95 88 90 91 87 87 87 84 82 82 79 82 81 88 93 86 79 65 65 71 75 71 71 67 66 74 53 37 37 53 80 74 72
80 81 80 80 80 81 80 81 82 82 85 96 97 98 94 88 90 90 91 88 83 83 85 81 90 88 87 88 89 86 79 70 66 65 65 65 70 69 69 75 65 46 54 63 73 84 76
93 89 85 83 82 82 84 85 85 83 79 83 85 94 99 99 89 85 82 82 86 86 85 87 80 80 76 85 76 77 77 80 70 70 65 67 58 65 58 55 60 65 59 65 68 75 81

GFSGBSN_prec_cthk_048.txt.gz
RH
21 21 20 24 25 27 28 24 28 31 34 40 42 47 56 62 63 56 48 54 43 39 35 38 33 32 30 31 30 28 36 33 32 32 30 29 31 31 30 29 29 26 24 24 26 25 23
21 21 21 22 21 20 19 17 17 23 29 32 43 49 50 59 64 62 49 48 57 43 41 41 36 31 30 39 26 27 27 33 36 34 34 33 33 30 30 33 31 27 24 23 22 24 28
20 21 20 20 19 17 16 15 15 18 22 25 31 44 58 51 63 65 64 55 58 60 41 40 39 34 34 33 24 26 27 31 34 33 34 36 34 34 32 35 33 27 25 24 22 23 30
20 20 21 19 17 17 17 17 16 16 18 18 25 33 51 63 64 65 59 50 51 67 60 44 40 38 38 35 26 25 25 28 36 36 36 36 34 34 36 34 34 29 26 23 22 28 29
20 19 19 19 18 17 16 15 15 16 16 19 17 30 27 46 57 55 53 53 50 60 57 52 46 41 38 39 33 33 32 27 34 41 41 38 34 36 39 38 37 32 26 24 25 27 31
18 18 18 17 16 16 15 15 15 23 17 15 19 25 32 29 41 46 51 48 41 56 57 48 47 45 34 36 39 44 42 38 32 39 42 40 36 40 42 42 44 32 28 29 30 29 35
18 17 18 18 18 18 17 17 17 24 21 18 22 25 29 32 31 40 37 50 45 44 50 53 51 39 35 35 45 43 42 42 38 36 41 40 39 38 43 42 37 30 29 31 31 33 34
18 18 19 19 18 19 18 18 17 19 18 20 23 25 25 30 34 37 41 42 63 58 56 45 46 46 37 35 39 40 44 43 37 37 40 42 37 38 43 43 40 34 31 31 31 32 37
20 19 22 21 20 20 19 18 16 17 17 22 25 25 25 28 28 34 40 43 49 64 62 47 39 39 41 34 32 29 42 47 43 39 39 43 39 39 43 45 43 39 33 32 31 36 41
24 23 25 27 21 25 20 19 17 17 18 22 27 25 29 30 30 34 37 43 50 43 53 30 33 31 35 29 30 22 27 38 46 42 41 42 40 40 40 42 41 41 32 28 29 39 45
29 29 24 27 23 21 21 21 17 17 19 23 27 27 36 35 37 41 40 42 43 53 19 11 21 23 31 31 22 25 18 24 37 46 44 43 41 42 43 43 42 41 35 33 39 44 44
31 28 28 28 23 23 20 19 18 17 19 24 27 32 38 38 39 46 42 37 49 54 42 13 17 29 37 25 24 28 28 26 22 40 49 45 44 43 40 43 43 39 40 46 50 50 53
32 32 31 29 26 22 19 18 17 17 19 21 26 35 40 40 44 51 47 45 56 59 20 19 23 22 27 36 28 21 24 27 27 40 45 46 46 46 44 46 47 43 47 58 58 61 57
33 32 31 28 23 23 20 17 17 18 19 21 27 38 40 41 49 55 53 55 61 43 35 22 22 24 27 33 34 29 22 21 20 24 36 44 46 45 45 46 48 48 49 62 62 64 51
31 28 26 25 27 27 21 19 18 19 20 24 30 39 40 42 55 60 61 62 53 49 43 32 23 24 29 30 39 29 34 28 17 22 27 40 40 36 39 41 45 51 53 47 56 61 65
29 29 28 29 29 29 23 20 19 23 23 28 36 42 41 48 61 66 69 60 54 57 51 40 35 31 36 36 36 41 39 46 34 28 30 35 38 36 40 43 47 49 49 56 60 60 64
29 30 30 30 30 29 23 21 22 26 29 39 44 48 40 53 70 76 67 68 58 53 59 45 43 41 37 37 39 42 51 55 54 45 35 31 34 33 34 43 45 48 51 52 55 61 61
32 32 32 30 31 28 25 24 24 30 34 48 54 55 50 60 79 78 68 66 63 63 60 57 51 44 43 37 39 40 47 50 59 57 55 49 47 47 38 36 43 45 47 53 62 56 65
34 34 33 33 31 30 26 30 28 33 43 55 57 53 56 73 81 83 77 69 71 73 70 69 57 51 39 40 44 43 56 62 61 64 66 58 62 66 50 42 49 52 53 56 55 55 55
36 35 34 33 35 32 29 31 32 37 45 63 64 64 61 79 83 91 90 80 73 75 83 80 74 67 59 52 47 55 51 59 61 68 61 59 68 64 77 65 61 64 58 60 65 65 57
40 37 35 39 36 32 30 31 34 40 51 70 69 63 68 76 87 92 91 84 89 87 85 83 77 77 76 68 57 56 57 53 50 61 62 59 65 69 66 66 59 54 58 60 62 64 65
50 46 46 44 36 32 31 33 36 40 60 76 69 66 70 81 87 96 97 91 88 87 85 86 81 85 84 76 65 56 49 53 55 52 58 60 63 69 73 66 65 52 54 56 58 61 58
53 53 50 38 32 33 34 35 36 41 69 76 72 75 80 77 93 98 88 89 91 89 85 82 85 88 85 79 70 61 52 44 45 50 64 68 70 69 69 69 70 63 48 52 51 50 51
51 45 43 40 39 39 38 34 39 51 75 81 81 85 89 87 93 94 96 94 94 90 88 85 86 87 82 82 76 65 56 51 48 44 51 59 67 77 76 68 76 41 43 46 48 43 46
54 53 49 46 38 35 37 40 49 67 82 91 94 96 97 92 96 98 96 98 92 90 90 87 84 79 82 81 85 78 73 67 57 52 46 46 67 70 71 71 48 31 25 29 37 29 38
55 58 57 51 46 44 44 51 64 77 90 96 97 98 99 98 87 90 99 97 94 96 94 87 84 85 85 84 85 84 76 62 68 59 53 54 59 66 68 72 59 24 26 33 39 40 45
69 69 67 59 52 51 61 69 76 87 95 98 97 99 99 97 92 96 95 97 98 96 95 89 86 89 87 89 89 84 79 68 70 66 72 70 70 71 72 72 48 33 35 45 50 51 50
86 86 81 78 80 86 91 94 95 98 98 98 98 99 98 98 97 98 95 96 98 97 94 89 95 95 97 92 86 85 84 74 70 71 72 70 77 74 73 77 59 37 48 56 61 54 52
98 97 96 94 93 95 97 97 97 97 97 98 97 99 99 98 98 95 92 95 93 87 88 89 81 83 84 88 87 83 80 78 72 73 67 72 64 67 63 52 43 42 42 46 64 63 59

GFSGBSN_prec_cthk_051.txt.gz
RH
26 24 22 21 20 20 19 19 17 13 14 14 15 18 24 29 34 38 45 51 54 54 44 49 44 56 41 39 37 28 39 39 36 33 28 23 24 27 30 30 30 30 28 27 25 24 24
24 21 20 19 19 18 18 18 18 17 15 15 16 18 21 26 32 41 45 54 56 55 48 55 54 49 44 48 39 36 36 41 41 38 37 33 28 29 30 31 31 31 30 27 24 23 25
23 21 20 20 19 19 19 19 18 17 16 15 15 15 19 17 23 34 48 54 59 58 48 50 63 63 47 42 42 41 35 33 38 40 38 40 34 31 30 34 33 33 32 29 24 23 25
21 21 20 19 20 20 19 19 17 14 14 16 14 14 14 18 18 26 34 48 52 50 50 49 59 63 54 44 46 45 33 31 31 36 36 37 36 34 33 36 37 36 34 31 24 25 27
21 20 20 21 19 18 18 17 15 14 15 16 15 14 14 17 19 24 28 32 40 43 47 47 53 61 57 54 56 48 42 37 29 36 38 37 37 34 33 38 40 38 35 31 24 25 30
23 22 21 19 18 18 17 18 17 16 15 16 15 15 16 20 22 22 27 29 25 37 50 48 49 60 61 50 57 59 53 48 36 37 46 44 42 39 34 36 41 41 38 29 25 28 34
26 24 22 19 18 18 18 18 18 18 18 15 13 15 18 22 22 24 24 21 29 30 41 55 50 47 52 52 46 58 48 52 48 35 47 47 44 40 36 39 44 39 35 31 26 28 30
26 26 25 24 22 19 19 19 19 19 17 16 15 16 20 24 25 25 26 33 40 52 38 47 46 47 42 51 50 48 56 52 52 47 45 48 44 43 43 41 41 39 37 34 28 31 33
29 28 28 25 26 20 20 22 20 18 17 18 18 19 23 22 26 28 33 36 43 45 48 32 40 44 51 42 54 43 44 43 58 50 47 44 43 43 44 44 43 41 40 38 31 33 35
30 33 32 29 23 25 21 24 23 23 18 19 20 22 25 24 27 33 36 40 42 43 47 27 29 35 36 43 48 49 34 43 51 54 48 45 42 43 44 44 44 41 41 40 35 36 33
27 33 32 32 24 28 25 25 24 23 19 19 20 22 27 26 29 35 36 38 39 49 25 13 21 28 31 36 36 46 36 29 39 52 50 45 44 43 45 43 45 43 43 42 34 35 37
32 28 33 32 33 35 31 29 23 23 21 19 19 20 26 28 32 40 39 38 41 53 36 16 25 32 32 33 35 44 40 34 29 43 51 48 46 44 41 42 43 45 43 44 43 43 45
35 32 34 34 34 36 34 30 25 23 21 19 17 20 25 27 34 42 41 40 49 55 25 25 27 25 25 34 36 40 44 36 36 44 46 45 50 50 47 46 47 48 47 49 52 54 46
39 36 37 36 36 36 35 34 28 24 20 18 18 21 22 26 33 44 47 51 58 41 40 30 28 25 28 32 34 39 38 39 38 37 37 40 50 54 51 49 46 48 50 52 55 58 49
35 36 37 37 37 36 35 35 29 21 18 18 23 23 21 22 34 44 51 57 49 47 44 40 31 25 33 36 40 38 51 31 27 36 38 44 42 43 48 50 51 57 57 48 55 60 59
29 30 30 30 30 30 30 30 30 21 18 21 25 27 21 23 37 51 59 53 49 53 55 46 41 33 40 41 43 41 51 62 41 24 29 33 38 39 44 49 52 52 51 57 58 56 56
30 39 32 31 31 31 36 35 31 23 20 27 34 37 27 31 41 54 62 57 50 43 55 54 51 48 44 48 47 44 52 53 60 59 27 31 31 40 41 47 49 53 52 52 53 57 55
42 41 34 33 32 36 38 39 31 27 26 32 38 42 39 45 51 56 64 63 47 46 52 57 53 54 54 51 53 48 53 55 61 63 61 45 38 40 39 39 49 52 53 54 59 56 63
42 44 43 39 43 45 42 43 34 32 33 39 47 44 37 51 59 60 63 63 56 55 59 67 66 58 60 54 53 48 58 61 64 67 67 62 64 62 47 46 49 58 64 60 60 58 56
48 44 44 47 46 46 41 43 38 37 36 50 53 52 51 50 53 61 65 62 62 64 64 73 76 74 67 63 59 51 48 52 58 64 69 67 66 67 58 52 53 56 51 53 55 62 59
62 55 53 52 51 49 42 55 42 43 42 52 55 55 49 59 52 63 69 75 70 76 76 77 82 86 85 79 68 58 51 49 49 56 64 64 65 65 63 59 58 55 51 50 52 51 53
82 73 70 66 64 56 48 57 45 45 45 56 57 57 56 53 60 71 72 74 83 86 83 86 90 90 90 83 76 65 58 54 51 49 62 65 63 66 65 61 58 54 51 51 52 51 51
86 84 80 66 64 60 59 58 47 45 47 57 55 57 64 63 62 66 63 73 88 91 86 84 91 94 91 87 80 72 61 53 50 53 52 63 72 68 62 64 57 52 49 47 42 39 40
79 82 74 60 67 68 61 52 44 46 49 54 58 62 69 66 68 61 66 88 91 88 90 90 91 95 90 89 85 80 70 58 50 47 50 57 71 78 74 68 60 34 37 39 40 34 28
63 63 64 64 58 53 49 45 47 47 49 54 56 66 72 70 68 70 75 86 98 96 93 93 91 91 96 97 91 83 79 71 56 48 48 47 58 71 77 74 47 38 33 30 29 29 35
61 64 69 69 69 66 61 59 48 50 46 53 53 66 78 80 73 83 93 93 96 97 99 96 96 95 96 96 95 86 81 72 69 61 59 59 57 67 77 59 52 31 35 34 33 32 35
54 59 64 65 68 68 65 59 48 44 41 51 55 74 85 87 86 91 92 93 96 97 96 96 96 98 98 94 93 88 80 74 70 66 68 67 70 68 73 67 48 37 39 47 45 39 40
50 56 68 74 75 74 70 62 57 42 46 61 71 84 92 93 93 93 88 94 96 98 98 94 98 98 96 93 91 86 81 72 67 73 76 68 70 70 70 70 61 40 53 55 45 41 41
82 83 86 88 88 80 73 64 55 51 62 76 84 90 98 99 93 94 93 94 93 89 93 95 88 89 91 91 88 84 81 76 70 70 70 75 65 66 61 51 42 49 55 51 47 41 41